<- Previous Day | Today | Next Day ->

All Data for 17 October 2020

 

Time A - D Temp A - D Dew Point A - D Humidity A - D Pressure A - D Wind A - D Wind Dir Gust A - D Rain Rate A - D Rain Total
00:00 8.5 3.9 73 1020.3 3.1 NE 3.8 0.0 0.0
00:01 8.5 3.9 73 1020.4 3.1 NE 3.8 0.0 0.0
00:02 8.5 3.9 73 1020.3 3.1 E 3.8 0.0 0.0
00:03 8.5 3.9 73 1020.4 3.1 NE 3.8 0.0 0.0
00:04 8.5 3.9 73 1020.2 3.1 NE 3.8 0.0 0.0
00:05 8.5 3.9 73 1020.3 3.8 ENE 3.8 0.0 0.0
00:06 8.5 3.9 73 1020.3 2.2 NE 3.8 0.0 0.0
00:07 8.5 3.9 73 1020.4 3.1 NE 3.8 0.0 0.0
00:08 8.5 4.1 74 1020.1 3.8 E 3.8 0.0 0.0
00:10 8.5 4.1 74 1020.2 3.8 NE 3.8 0.0 0.0
00:11 8.5 4.1 74 1020.1 3.8 NE 3.8 0.0 0.0
00:12 8.5 4.1 74 1020.4 3.8 NE 3.8 0.0 0.0
00:13 8.5 4.1 74 1020.1 3.8 E 3.8 0.0 0.0
00:14 8.6 4.2 74 1020.3 5.4 E 5.4 0.0 0.0
00:15 8.6 4.2 74 1020.3 5.4 E 5.4 0.0 0.0
00:16 8.6 4.2 74 1020.3 4.5 NE 5.4 0.0 0.0
00:17 8.6 4.2 74 1020.1 4.5 NE 5.4 0.0 0.0
00:18 8.6 4.2 74 1020.3 3.8 E 5.4 0.0 0.0
00:19 8.6 4.2 74 1020.3 5.4 E 5.4 0.0 0.0
00:20 8.6 4.2 74 1020.2 5.4 NE 5.4 0.0 0.0
00:21 8.6 4.2 74 1020.2 3.1 E 5.4 0.0 0.0
00:22 8.6 4.4 75 1020.3 3.1 ENE 5.4 0.0 0.0
00:24 8.7 4.5 75 1020.0 2.2 NE 5.4 0.0 0.0
00:25 8.7 4.5 75 1020.1 3.8 NE 5.4 0.0 0.0
00:26 8.7 4.5 75 1020.3 3.8 E 5.4 0.0 0.0
00:27 8.7 4.5 75 1020.0 3.8 N 5.4 0.0 0.0
00:28 8.7 4.5 75 1020.0 3.8 N 5.4 0.0 0.0
00:29 8.7 4.5 75 1020.3 3.8 E 5.4 0.0 0.0
00:30 8.7 4.5 75 1020.2 3.8 E 5.4 0.0 0.0
00:31 8.7 4.5 75 1020.0 3.8 NE 3.8 0.0 0.0
00:32 8.7 4.5 75 1020.1 4.5 E 4.5 0.0 0.0
00:33 8.7 4.5 75 1020.0 4.5 E 4.5 0.0 0.0
00:34 8.7 4.5 75 1019.9 3.8 NE 5.4 0.0 0.0
00:35 8.7 4.5 75 1020.2 3.1 NE 5.4 0.0 0.0
00:36 8.7 4.7 76 1020.0 3.1 E 5.4 0.0 0.0
00:38 8.7 4.7 76 1020.0 3.1 NE 5.4 0.0 0.0
00:39 8.7 4.7 76 1019.9 3.8 NE 5.4 0.0 0.0
00:40 8.7 4.7 76 1020.1 3.8 E 5.4 0.0 0.0
00:41 8.7 4.7 76 1020.1 3.8 E 5.4 0.0 0.0
00:42 8.7 4.7 76 1020.1 3.1 NE 5.4 0.0 0.0
00:43 8.8 4.8 76 1019.9 3.1 E 5.4 0.0 0.0
00:44 8.8 4.8 76 1020.0 3.1 WNW 3.8 0.0 0.0
00:45 8.8 4.8 76 1020.2 4.5 NE 4.5 0.0 0.0
00:46 8.8 4.8 76 1019.8 3.8 NE 4.5 0.0 0.0
00:47 8.8 4.8 76 1020.0 3.8 NE 4.5 0.0 0.0
00:48 8.8 4.8 76 1020.0 3.8 E 4.5 0.0 0.0
00:49 8.8 4.8 76 1020.1 3.8 NE 4.5 0.0 0.0
00:50 8.8 5.0 77 1020.2 3.1 NE 4.5 0.0 0.0
00:51 8.8 5.0 77 1020.0 3.1 NE 4.5 0.0 0.0
00:53 8.8 5.0 77 1020.3 3.8 NE 4.5 0.0 0.0
00:54 8.8 5.0 77 1020.0 2.2 NE 4.5 0.0 0.0
00:55 8.9 5.1 77 1020.0 3.1 NE 4.5 0.0 0.0
00:56 8.9 5.1 77 1019.9 2.2 NE 3.8 0.0 0.0
00:57 8.9 5.1 77 1019.9 2.2 NE 3.8 0.0 0.0
00:58 8.9 5.1 77 1020.2 3.1 NE 3.8 0.0 0.0
00:59 8.9 5.1 77 1020.0 3.1 NE 3.8 0.0 0.0
01:00 8.9 5.1 77 1019.9 3.1 N 3.8 0.0 0.0
01:01 8.9 5.1 77 1020.0 3.1 N 3.8 0.0 0.0
01:02 8.9 5.1 77 1019.8 3.1 N 3.8 0.0 0.0
01:03 8.9 5.1 77 1020.2 3.1 N 3.8 0.0 0.0
01:04 8.9 5.1 77 1020.0 3.1 N 3.1 0.0 0.0
01:05 8.9 5.1 77 1019.9 3.1 N 3.1 0.0 0.0
01:07 9.0 5.2 77 1020.0 1.6 NE 3.1 0.0 0.0
01:08 9.0 5.2 77 1020.1 0.7 N 3.1 0.0 0.0
01:09 9.0 5.2 77 1020.0 1.6 NE 3.1 0.0 0.0
01:10 9.0 5.2 77 1020.0 1.6 N 3.1 0.0 0.0
01:11 9.0 5.2 77 1020.0 1.6 N 3.1 0.0 0.0
01:12 9.0 5.2 77 1019.8 1.6 E 3.1 0.0 0.0
01:13 9.0 5.4 78 1019.7 2.2 N 3.1 0.0 0.0
01:14 9.0 5.4 78 1020.1 1.6 NW 3.1 0.0 0.0
01:15 9.0 5.4 78 1019.9 2.2 NW 3.1 0.0 0.0
01:16 9.0 5.4 78 1019.9 3.1 N 3.1 0.0 0.0
01:17 9.0 5.4 78 1019.9 2.2 N 3.1 0.0 0.0
01:18 9.0 5.4 78 1020.0 1.6 N 3.1 0.0 0.0
01:19 9.0 5.4 78 1020.0 3.1 N 3.1 0.0 0.0
01:21 9.0 5.4 78 1019.9 0.7 N 3.1 0.0 0.0
01:22 9.0 5.4 78 1019.9 0.7 N 3.1 0.0 0.0
01:23 9.0 5.4 78 1019.8 1.6 NE 3.1 0.0 0.0
01:24 9.0 5.4 78 1019.9 0.7 ENE 3.1 0.0 0.0
01:25 9.0 5.4 78 1019.9 0.7 ENE 3.1 0.0 0.0
01:26 9.0 5.4 78 1020.0 2.2 N 3.1 0.0 0.0
01:27 9.1 5.5 78 1019.7 1.6 N 3.1 0.0 0.0
01:28 9.1 5.5 78 1019.8 1.6 N 3.1 0.0 0.0
01:29 9.1 5.5 78 1019.7 2.2 NE 3.1 0.0 0.0
01:30 9.1 5.5 78 1019.7 2.2 N 3.1 0.0 0.0
01:31 9.1 5.5 78 1019.8 2.2 N 2.2 0.0 0.0
01:32 9.1 5.5 78 1019.9 2.2 E 2.2 0.0 0.0
01:33 9.1 5.5 78 1019.8 2.2 NE 2.2 0.0 0.0
01:35 9.1 5.5 78 1019.8 2.2 NE 2.2 0.0 0.0
01:36 9.1 5.5 78 1019.8 2.2 NE 2.2 0.0 0.0
01:37 9.1 5.5 78 1019.9 3.1 NE 3.1 0.0 0.0
01:38 9.1 5.5 78 1019.7 3.1 E 3.1 0.0 0.0
01:39 9.1 5.5 78 1019.9 3.1 NE 3.1 0.0 0.0
01:40 9.1 5.5 78 1020.0 2.2 NE 3.1 0.0 0.0
01:41 9.1 5.5 78 1020.0 3.1 E 3.1 0.0 0.0
01:42 9.1 5.5 78 1019.8 2.2 N 3.1 0.0 0.0
01:43 9.1 5.5 78 1019.8 2.2 NE 3.1 0.0 0.0
01:44 9.1 5.5 78 1019.6 2.2 NE 3.1 0.0 0.0
01:45 9.1 5.5 78 1020.0 2.2 E 3.1 0.0 0.0
01:46 9.1 5.5 78 1019.8 3.1 NE 3.1 0.0 0.0
01:47 9.1 5.5 78 1019.7 2.2 NE 3.1 0.0 0.0
01:49 9.1 5.5 78 1019.7 2.2 NE 3.1 0.0 0.0
01:50 9.1 5.5 78 1019.8 3.8 NE 3.8 0.0 0.0
01:51 9.1 5.5 78 1019.7 3.1 NE 3.8 0.0 0.0
01:52 9.1 5.5 78 1019.9 3.1 NE 3.8 0.0 0.0
01:53 9.1 5.5 78 1019.9 3.1 NE 3.8 0.0 0.0
01:54 9.1 5.5 78 1019.8 3.1 NE 3.8 0.0 0.0
01:55 9.1 5.5 78 1019.8 2.2 NE 3.8 0.0 0.0
01:56 9.1 5.5 78 1019.8 3.8 NE 3.8 0.0 0.0
01:57 9.1 5.5 78 1019.5 4.5 NE 4.5 0.0 0.0
01:58 9.1 5.5 78 1019.7 2.2 N 4.5 0.0 0.0
01:59 9.1 5.5 78 1019.7 3.1 NE 4.5 0.0 0.0
02:00 9.1 5.5 78 1019.8 3.8 NE 4.5 0.0 0.0
02:01 9.2 5.6 78 1019.8 3.8 E 4.5 0.0 0.0
02:03 9.2 5.8 79 1019.5 4.5 ESE 4.5 0.0 0.0
02:04 9.2 5.8 79 1019.7 4.5 ESE 4.5 0.0 0.0
02:05 9.2 5.8 79 1019.8 4.5 NE 4.5 0.0 0.0
02:06 9.2 5.8 79 1019.7 4.5 NE 4.5 0.0 0.0
02:07 9.2 5.8 79 1019.7 3.8 E 4.5 0.0 0.0
02:08 9.2 5.8 79 1019.6 3.8 E 4.5 0.0 0.0
02:09 9.3 5.8 79 1019.8 3.1 E 4.5 0.0 0.0
02:10 9.3 5.8 79 1019.7 5.4 NE 5.4 0.0 0.0
02:11 9.3 5.8 79 1019.7 3.8 E 5.4 0.0 0.0
02:12 9.3 5.8 79 1019.8 5.4 NE 5.4 0.0 0.0
02:13 9.3 5.8 79 1019.6 4.5 NE 5.4 0.0 0.0
02:14 9.3 5.8 79 1019.6 3.8 E 5.4 0.0 0.0
02:15 9.3 5.8 79 1019.4 4.5 E 5.4 0.0 0.0
02:17 9.4 5.9 79 1019.8 4.5 E 5.4 0.0 0.0
02:18 9.4 5.9 79 1019.6 4.5 N 5.4 0.0 0.0
02:19 9.4 5.9 79 1019.7 3.8 NW 5.4 0.0 0.0
02:20 9.4 5.9 79 1019.4 3.8 E 5.4 0.0 0.0
02:21 9.4 5.9 79 1019.4 3.8 E 5.4 0.0 0.0
02:22 9.4 5.9 79 1019.5 3.8 NE 5.4 0.0 0.0
02:23 9.4 6.1 80 1019.6 3.8 NE 5.4 0.0 0.0
02:24 9.4 6.1 80 1019.6 3.1 E 5.4 0.0 0.0
02:25 9.5 6.2 80 1019.6 3.1 NE 5.4 0.0 0.0
02:26 9.5 6.2 80 1019.3 3.1 E 5.4 0.0 0.0
02:27 9.5 6.2 80 1019.4 3.1 NE 4.5 0.0 0.0
02:28 9.5 6.2 80 1019.6 3.1 NE 4.5 0.0 0.0
02:29 9.5 6.2 80 1019.4 3.1 E 3.8 0.0 0.0
02:31 9.5 6.2 80 1019.5 2.2 E 3.8 0.0 0.0
02:32 9.5 6.2 80 1019.7 3.8 E 3.8 0.0 0.0
02:33 9.5 6.2 80 1019.6 3.1 NE 3.8 0.0 0.0
02:34 9.6 6.3 80 1019.2 2.2 NE 3.8 0.0 0.0
02:35 9.6 6.3 80 1019.5 2.2 NE 3.8 0.0 0.0
02:36 9.6 6.3 80 1019.6 3.1 NE 3.8 0.0 0.0
02:37 9.6 6.3 80 1019.5 3.1 NE 3.8 0.0 0.0
02:38 9.6 6.3 80 1019.4 3.1 NE 3.8 0.0 0.0
02:39 9.6 6.3 80 1019.4 3.1 NE 3.8 0.0 0.0
02:40 9.6 6.3 80 1019.5 3.1 NE 3.8 0.0 0.0
02:41 9.6 6.3 80 1019.4 3.1 NE 3.8 0.0 0.0
02:42 9.6 6.3 80 1019.5 3.1 NW 3.8 0.0 0.0
02:43 9.6 6.3 80 1019.4 3.8 NE 3.8 0.0 0.0
02:45 9.6 6.3 80 1019.3 3.8 E 3.8 0.0 0.0
02:46 9.6 6.3 80 1019.4 1.6 NE 3.8 0.0 0.0
02:47 9.6 6.3 80 1019.2 1.6 NE 3.8 0.0 0.0
02:48 9.6 6.3 80 1019.3 2.2 E 3.8 0.0 0.0
02:49 9.6 6.3 80 1019.3 2.2 E 3.8 0.0 0.0
02:50 9.6 6.3 80 1019.2 3.1 E 3.8 0.0 0.0
02:51 9.6 6.3 80 1019.3 3.1 E 3.8 0.0 0.0
02:52 9.6 6.3 80 1019.2 4.5 E 4.5 0.0 0.0
02:53 9.6 6.3 80 1019.3 3.1 E 4.5 0.0 0.0
02:54 9.6 6.3 80 1019.3 3.8 NE 4.5 0.0 0.0
02:55 9.6 6.3 80 1019.1 3.1 NE 4.5 0.0 0.0
02:56 9.6 6.3 80 1019.1 3.8 E 4.5 0.0 0.0
02:57 9.6 6.3 80 1019.2 3.8 NE 4.5 0.0 0.0
02:59 9.6 6.3 80 1019.3 4.5 N 4.5 0.0 0.0
03:00 9.6 6.3 80 1019.3 4.5 N 4.5 0.0 0.0
03:01 9.6 6.3 80 1019.1 4.5 N 4.5 0.0 0.0
03:02 9.6 6.3 80 1019.3 4.5 N 4.5 0.0 0.0
03:03 9.6 6.3 80 1019.2 4.5 N 4.5 0.0 0.0
03:04 9.6 6.3 80 1019.2 4.5 N 4.5 0.0 0.0
03:05 9.6 6.3 80 1019.0 4.5 N 4.5 0.0 0.0
03:06 9.6 6.3 80 1019.1 4.5 N 4.5 0.0 0.0
03:07 9.6 6.3 80 1019.1 2.2 N 4.5 0.0 0.0
03:08 9.6 6.3 80 1019.1 3.1 N 4.5 0.0 0.0
03:09 9.6 6.3 80 1019.0 3.1 NE 4.5 0.0 0.0
03:10 9.6 6.3 80 1019.2 2.2 E 4.5 0.0 0.0
03:11 9.6 6.3 80 1019.2 3.8 N 4.5 0.0 0.0
03:13 9.6 6.3 80 1019.2 3.1 E 4.5 0.0 0.0
03:14 9.6 6.3 80 1019.0 2.2 E 4.5 0.0 0.0
03:15 9.6 6.3 80 1019.2 3.8 E 4.5 0.0 0.0
03:16 9.6 6.3 80 1018.9 3.8 E 3.8 0.0 0.0
03:17 9.6 6.3 80 1018.9 3.8 E 3.8 0.0 0.0
03:18 9.6 6.3 80 1019.0 3.8 E 3.8 0.0 0.0
03:19 9.6 6.3 80 1019.0 3.8 E 3.8 0.0 0.0
03:20 9.6 6.3 80 1019.0 3.8 NE 3.8 0.0 0.0
03:21 9.6 6.3 80 1019.1 2.2 E 3.8 0.0 0.0
03:22 9.6 6.3 80 1018.8 1.6 NE 3.8 0.0 0.0
03:23 9.6 6.3 80 1019.1 2.2 ENE 3.8 0.0 0.0
03:24 9.6 6.3 80 1019.1 2.2 N 3.8 0.0 0.0
03:25 9.6 6.3 80 1019.1 1.6 E 3.8 0.0 0.0
03:27 9.6 6.3 80 1018.9 2.2 NE 3.8 0.0 0.0
03:28 9.6 6.3 80 1018.8 2.2 E 3.8 0.0 0.0
03:29 9.6 6.3 80 1018.9 1.6 NE 3.8 0.0 0.0
03:30 9.6 6.3 80 1018.9 1.6 NE 3.1 0.0 0.0
03:31 9.6 6.3 80 1018.8 1.6 NE 3.1 0.0 0.0
03:32 9.6 6.3 80 1018.9 1.6 E 3.1 0.0 0.0
03:33 9.6 6.3 80 1018.9 2.2 NE 3.1 0.0 0.0
03:34 9.6 6.3 80 1018.8 3.1 E 3.1 0.0 0.0
03:35 9.6 6.3 80 1019.1 2.2 NE 3.1 0.0 0.0
03:36 9.7 6.4 80 1018.8 3.1 E 3.1 0.0 0.0
03:37 9.7 6.4 80 1018.8 2.2 NE 3.1 0.0 0.0
03:38 9.7 6.4 80 1018.9 2.2 NE 3.1 0.0 0.0
03:39 9.7 6.4 80 1018.8 2.2 ENE 3.1 0.0 0.0
03:41 9.7 6.4 80 1018.8 3.8 E 3.8 0.0 0.0
03:42 9.7 6.4 80 1018.7 4.5 NE 4.5 0.0 0.0
03:43 9.7 6.4 80 1018.7 3.8 E 4.5 0.0 0.0
03:44 9.7 6.4 80 1018.9 4.5 NE 4.5 0.0 0.0
03:45 9.7 6.4 80 1018.9 4.5 NE 4.5 0.0 0.0
03:46 9.7 6.4 80 1018.8 4.5 NE 4.5 0.0 0.0
03:47 9.7 6.4 80 1018.9 4.5 N 4.5 0.0 0.0
03:48 9.7 6.4 80 1019.0 3.1 E 4.5 0.0 0.0
03:49 9.7 6.4 80 1018.8 3.8 NE 4.5 0.0 0.0
03:50 9.7 6.4 80 1018.9 3.8 NE 4.5 0.0 0.0
03:51 9.7 6.4 80 1018.7 3.1 NE 4.5 0.0 0.0
03:52 9.7 6.4 80 1018.8 4.5 E 4.5 0.0 0.0
03:53 9.7 6.4 80 1018.8 3.1 N 4.5 0.0 0.0
03:55 9.7 6.4 80 1018.8 2.2 E 4.5 0.0 0.0
03:56 9.7 6.4 80 1018.7 2.2 N 4.5 0.0 0.0
03:57 9.7 6.4 80 1018.6 3.1 N 4.5 0.0 0.0
03:58 9.7 6.4 80 1018.8 3.1 E 4.5 0.0 0.0
03:59 9.7 6.4 80 1018.7 2.2 NE 4.5 0.0 0.0
04:00 9.7 6.4 80 1018.7 2.2 NE 4.5 0.0 0.0
04:01 9.7 6.4 80 1018.5 3.1 E 4.5 0.0 0.0
04:02 9.7 6.4 80 1018.6 3.8 NW 4.5 0.0 0.0
04:03 9.7 6.4 80 1018.5 3.8 E 3.8 0.0 0.0
04:04 9.7 6.4 80 1018.6 3.1 NE 3.8 0.0 0.0
04:05 9.7 6.4 80 1018.9 3.1 NE 3.8 0.0 0.0
04:06 9.7 6.4 80 1018.6 3.1 NE 3.8 0.0 0.0
04:07 9.7 6.4 80 1018.6 3.1 NE 3.8 0.0 0.0
04:09 9.7 6.4 80 1018.8 2.2 NE 3.8 0.0 0.0
04:10 9.7 6.4 80 1018.8 3.8 NE 3.8 0.0 0.0
04:11 9.7 6.4 80 1018.7 3.1 NE 3.8 0.0 0.0
04:12 9.7 6.4 80 1018.8 3.8 E 3.8 0.0 0.0
04:13 9.7 6.4 80 1018.8 3.8 E 3.8 0.0 0.0
04:14 9.7 6.4 80 1019.0 4.5 E 4.5 0.0 0.0
04:15 9.7 6.4 80 1018.7 4.5 NE 4.5 0.0 0.0
04:16 9.7 6.4 80 1018.7 3.8 NE 4.5 0.0 0.0
04:17 9.7 6.4 80 1018.7 3.8 NE 4.5 0.0 0.0
04:18 9.7 6.4 80 1018.7 3.1 N 4.5 0.0 0.0
04:19 9.7 6.4 80 1018.9 2.2 N 4.5 0.0 0.0
04:20 9.7 6.4 80 1018.8 2.2 N 4.5 0.0 0.0
04:21 9.7 6.4 80 1018.5 3.1 NE 4.5 0.0 0.0
04:23 9.7 6.4 80 1018.8 2.2 ESE 4.5 0.0 0.0
04:24 9.7 6.4 80 1018.7 2.2 E 4.5 0.0 0.0
04:25 9.7 6.4 80 1018.6 2.2 ESE 4.5 0.0 0.0
04:26 9.7 6.4 80 1018.8 3.8 E 4.5 0.0 0.0
04:27 9.7 6.4 80 1018.8 3.8 E 4.5 0.0 0.0
04:28 9.8 6.5 80 1018.6 3.1 NE 4.5 0.0 0.0
04:29 9.8 6.5 80 1018.7 2.2 ENE 4.5 0.0 0.0
04:30 9.8 6.5 80 1018.6 2.2 NE 4.5 0.0 0.0
04:31 9.8 6.5 80 1018.7 2.2 NE 4.5 0.0 0.0
04:32 9.8 6.5 80 1018.7 2.2 NE 4.5 0.0 0.0
04:33 9.8 6.5 80 1018.6 2.2 E 3.8 0.0 0.0
04:34 9.9 6.6 80 1018.7 2.2 N 3.8 0.0 0.0
04:35 9.9 6.8 81 1018.6 1.6 NE 3.8 0.0 0.0
04:37 9.9 6.8 81 1018.7 3.1 NE 3.1 0.0 0.0
04:38 9.9 6.8 81 1018.7 5.4 N 5.4 0.0 0.0
04:39 10.0 6.9 81 1018.5 4.5 NE 6.0 0.0 0.0
04:40 10.0 6.9 81 1018.6 4.5 E 6.0 0.0 0.0
04:41 10.0 6.9 81 1018.6 4.5 E 6.0 0.0 0.0
04:42 10.0 6.9 81 1018.6 6.0 NNE 8.3 0.0 0.0
04:43 10.0 6.9 81 1018.5 3.8 E 8.3 0.0 0.0
04:44 10.1 7.0 81 1018.5 4.5 E 8.3 0.0 0.0
04:45 10.1 7.0 81 1018.7 3.1 E 8.3 0.0 0.0
04:46 10.1 7.0 81 1018.6 3.1 ENE 8.3 0.0 0.0
04:47 10.1 7.0 81 1018.7 3.8 NE 8.3 0.0 0.0
04:48 10.1 7.0 81 1018.8 3.8 E 8.3 0.0 0.0
04:49 10.1 7.0 81 1018.8 3.8 E 8.3 0.0 0.0
04:51 10.2 7.1 81 1018.7 3.8 E 8.3 0.0 0.0
04:52 10.2 7.1 81 1018.8 3.8 N 4.5 0.0 0.0
04:53 10.2 7.1 81 1018.7 3.1 NE 4.5 0.0 0.0
04:54 10.2 7.1 81 1018.6 3.1 E 3.8 0.0 0.0
04:55 10.2 7.1 81 1018.5 3.8 E 3.8 0.0 0.0
04:56 10.2 7.1 81 1018.6 3.8 NE 3.8 0.0 0.0
04:57 10.2 7.1 81 1018.6 3.1 E 3.8 0.0 0.0
04:58 10.2 7.1 81 1018.6 3.8 NE 3.8 0.0 0.0
04:59 10.2 7.1 81 1018.8 3.1 NE 3.8 0.0 0.0
05:00 10.2 7.1 81 1018.4 3.1 NE 3.8 0.0 0.0
05:01 10.2 7.1 81 1018.6 3.1 NE 3.8 0.0 0.0
05:02 10.2 7.1 81 1018.8 3.1 NE 3.8 0.0 0.0
05:04 10.2 7.1 81 1018.4 3.1 NE 3.8 0.0 0.0
05:05 10.2 7.1 81 1018.6 3.1 NE 3.8 0.0 0.0
05:06 10.2 7.1 81 1018.6 3.1 NE 3.8 0.0 0.0
05:07 10.1 7.0 81 1018.5 2.2 NE 3.8 0.0 0.0
05:08 10.1 7.0 81 1018.6 3.1 N 3.8 0.0 0.0
05:09 10.1 7.0 81 1018.6 3.1 N 3.1 0.0 0.0
05:10 10.1 7.0 81 1018.6 3.1 E 3.1 0.0 0.0
05:11 10.1 7.0 81 1018.5 3.1 NE 3.1 0.0 0.0
05:12 10.1 7.0 81 1018.7 3.8 NE 3.8 0.0 0.0
05:13 10.1 7.0 81 1018.5 3.1 N 3.8 0.0 0.0
05:14 10.1 7.0 81 1018.7 3.1 N 3.8 0.0 0.0
05:15 10.1 7.0 81 1018.6 3.1 NNW 3.8 0.0 0.0
05:16 10.1 7.0 81 1018.6 3.1 E 3.8 0.0 0.0
05:17 10.1 7.0 81 1018.5 3.8 NE 3.8 0.0 0.0
05:19 10.0 6.9 81 1018.6 3.8 E 3.8 0.0 0.0
05:20 10.0 6.9 81 1018.5 3.8 E 3.8 0.0 0.0
05:21 10.0 6.9 81 1018.5 3.1 NE 3.8 0.0 0.0
05:22 10.0 6.9 81 1018.6 5.4 NE 5.4 0.0 0.0
05:23 10.0 6.9 81 1018.6 5.4 NE 5.4 0.0 0.0
05:24 10.0 6.9 81 1018.5 3.8 NE 5.4 0.0 0.0
05:25 10.0 6.9 81 1018.7 3.8 NE 5.4 0.0 0.0
05:26 10.0 6.9 81 1018.6 3.1 E 5.4 0.0 0.0
05:27 10.0 6.9 81 1018.8 3.1 E 5.4 0.0 0.0
05:28 10.0 6.9 81 1018.6 3.1 E 5.4 0.0 0.0
05:29 10.0 6.9 81 1018.7 3.1 E 5.4 0.0 0.0
05:30 10.0 6.9 81 1018.6 4.5 E 5.4 0.0 0.0
05:31 10.0 6.9 81 1018.6 3.1 NE 5.4 0.0 0.0
05:33 10.1 7.0 81 1018.6 4.5 NNW 4.5 0.0 0.0
05:34 10.1 7.0 81 1018.6 4.5 NNW 4.5 0.0 0.0
05:35 10.1 7.0 81 1018.6 3.1 NE 4.5 0.0 0.0
05:36 10.1 7.0 81 1018.6 2.2 NE 4.5 0.0 0.0
05:37 10.1 7.0 81 1018.6 2.2 NE 4.5 0.0 0.0
05:38 10.1 7.0 81 1018.6 3.1 NE 4.5 0.0 0.0
05:39 10.1 7.0 81 1018.7 2.2 E 4.5 0.0 0.0
05:40 10.1 7.0 81 1018.5 3.1 E 4.5 0.0 0.0
05:41 10.1 7.0 81 1018.6 3.1 NNW 4.5 0.0 0.0
05:42 10.1 7.0 81 1018.6 2.2 SE 4.5 0.0 0.0
05:43 10.1 7.0 81 1018.6 3.1 NE 4.5 0.0 0.0
05:44 10.1 7.0 81 1018.6 2.2 N 3.8 0.0 0.0
05:45 10.1 7.0 81 1018.4 3.1 NNW 3.1 0.0 0.0
05:47 10.1 7.2 82 1018.7 3.1 N 3.1 0.0 0.0
05:48 10.1 7.2 82 1018.5 2.2 NNW 3.1 0.0 0.0
05:49 10.1 7.2 82 1018.8 4.5 N 4.5 0.0 0.0
05:50 10.2 7.3 82 1018.5 3.8 ESE 4.5 0.0 0.0
05:51 10.2 7.3 82 1018.6 3.8 E 4.5 0.0 0.0
05:52 10.2 7.3 82 1018.7 3.8 NNW 4.5 0.0 0.0
05:53 10.2 7.3 82 1018.6 5.4 NNW 5.4 0.0 0.0
05:54 10.2 7.3 82 1018.6 4.5 NE 5.4 0.0 0.0
05:55 10.2 7.3 82 1018.6 4.5 NE 5.4 0.0 0.0
05:56 10.2 7.3 82 1018.6 3.1 ESE 5.4 0.0 0.0
05:57 10.2 7.3 82 1018.6 3.1 ESE 5.4 0.0 0.0
05:58 10.2 7.3 82 1018.5 6.9 NNW 6.9 0.0 0.0
05:59 10.2 7.3 82 1018.5 6.0 NE 6.9 0.0 0.0
06:01 10.2 7.3 82 1018.7 6.0 E 6.9 0.0 0.0
06:02 10.2 7.3 82 1018.6 5.4 NE 6.9 0.0 0.0
06:03 10.2 7.3 82 1018.5 3.8 E 6.9 0.0 0.0
06:04 10.2 7.3 82 1018.6 5.4 NE 6.9 0.0 0.0
06:05 10.2 7.3 82 1018.6 5.4 NE 6.9 0.0 0.0
06:06 10.2 7.3 82 1018.6 5.4 E 6.9 0.0 0.0
06:07 10.2 7.3 82 1018.6 5.4 NE 6.9 0.0 0.0
06:08 10.2 7.3 82 1018.8 4.5 NE 6.9 0.0 0.0
06:09 10.2 7.3 82 1018.6 5.4 E 6.0 0.0 0.0
06:10 10.2 7.3 82 1018.5 5.4 E 6.0 0.0 0.0
06:11 10.2 7.3 82 1018.6 6.0 E 6.0 0.0 0.0
06:12 10.2 7.3 82 1018.5 6.0 NE 6.0 0.0 0.0
06:13 10.2 7.3 82 1018.5 4.5 N 6.0 0.0 0.0
06:15 10.2 7.3 82 1018.5 4.5 E 6.0 0.0 0.0
06:16 10.3 7.4 82 1018.6 3.8 E 6.0 0.0 0.0
06:17 10.3 7.4 82 1018.5 5.4 E 6.0 0.0 0.0
06:18 10.3 7.4 82 1018.5 4.5 NE 6.0 0.0 0.0
06:19 10.3 7.4 82 1018.5 3.8 NW 6.0 0.0 0.0
06:20 10.3 7.4 82 1018.6 4.5 NE 6.0 0.0 0.0
06:21 10.3 7.4 82 1018.6 4.5 ESE 6.0 0.0 0.0
06:22 10.3 7.4 82 1018.6 1.6 NW 6.0 0.0 0.0
06:23 10.2 7.3 82 1018.6 0.7 E 6.0 0.0 0.0
06:24 10.2 7.3 82 1018.4 5.4 E 6.0 0.0 0.0
06:25 10.2 7.3 82 1018.4 3.8 E 5.4 0.0 0.0
06:26 10.2 7.3 82 1018.5 3.8 NE 5.4 0.0 0.0
06:27 10.2 7.3 82 1018.5 3.8 E 5.4 0.0 0.0
06:29 10.2 7.3 82 1018.4 5.4 E 5.4 0.0 0.0
06:30 10.2 7.3 82 1018.6 5.4 NE 5.4 0.0 0.0
06:31 10.2 7.3 82 1018.3 7.6 NE 7.6 0.0 0.0
06:32 10.2 7.3 82 1018.3 5.4 NE 7.6 0.0 0.0
06:33 10.2 7.3 82 1018.3 5.4 NE 7.6 0.0 0.0
06:34 10.2 7.3 82 1018.5 4.5 N 7.6 0.0 0.0
06:35 10.2 7.3 82 1018.3 3.8 E 7.6 0.0 0.0
06:36 10.2 7.3 82 1018.7 3.1 E 7.6 0.0 0.0
06:37 10.2 7.3 82 1018.3 3.1 W 7.6 0.0 0.0
06:38 10.2 7.3 82 1018.5 6.9 E 7.6 0.0 0.0
06:39 10.2 7.3 82 1018.4 6.9 NE 7.6 0.0 0.0
06:40 10.2 7.3 82 1018.4 4.5 NE 7.6 0.0 0.0
06:41 10.2 7.3 82 1018.2 4.5 SE 7.6 0.0 0.0
06:43 10.2 7.3 82 1018.3 4.5 NE 6.9 0.0 0.0
06:44 10.2 7.3 82 1018.3 4.5 NE 6.9 0.0 0.0
06:45 10.2 7.3 82 1018.2 4.5 E 6.9 0.0 0.0
06:46 10.2 7.3 82 1018.3 3.1 E 6.9 0.0 0.0
06:47 10.2 7.3 82 1018.3 3.1 NNE 6.9 0.0 0.0
06:48 10.2 7.3 82 1018.3 9.2 E 9.2 0.0 0.0
06:49 10.2 7.3 82 1018.3 4.5 E 9.2 0.0 0.0
06:50 10.2 7.3 82 1018.4 6.9 E 9.2 0.0 0.0
06:51 10.2 7.3 82 1018.4 8.3 NE 9.8 0.0 0.0
06:52 10.2 7.3 82 1018.3 7.6 E 9.8 0.0 0.0
06:53 10.2 7.3 82 1018.4 5.4 E 9.8 0.0 0.0
06:54 10.3 7.4 82 1018.4 6.9 NE 9.8 0.0 0.0
06:55 10.3 7.4 82 1018.4 9.8 E 9.8 0.0 0.0
06:57 10.3 7.4 82 1018.1 6.0 NNW 9.8 0.0 0.0
06:58 10.3 7.4 82 1018.3 6.9 E 9.8 0.0 0.0
06:59 10.4 7.5 82 1018.2 6.0 NNW 9.8 0.0 0.0
07:00 10.4 7.5 82 1018.3 6.0 NNW 9.8 0.0 0.0
07:01 10.4 7.5 82 1018.3 6.0 NNW 9.8 0.0 0.0
07:02 10.4 7.5 82 1018.2 6.0 NNW 9.8 0.0 0.0
07:03 10.4 7.5 82 1018.2 6.0 NNW 9.8 0.0 0.0
07:04 10.4 7.5 82 1018.4 6.0 NNW 9.8 0.0 0.0
07:05 10.4 7.5 82 1018.4 6.0 NNW 9.8 0.0 0.0
07:06 10.4 7.5 82 1018.3 6.0 NNW 6.9 0.0 0.0
07:07 10.4 7.5 82 1018.2 6.9 NE 6.9 0.0 0.0
07:08 10.4 7.5 82 1018.3 8.3 NE 8.3 0.0 0.0
07:09 10.4 7.5 82 1018.4 6.0 E 8.3 0.0 0.0
07:11 10.4 7.5 82 1018.3 8.3 E 8.3 0.0 0.1
07:12 10.4 7.5 82 1018.4 6.9 NE 8.3 0.8 0.1
07:13 10.4 7.5 82 1018.3 9.8 NE 9.8 0.8 0.1
07:14 10.4 7.5 82 1018.3 5.4 E 9.8 0.8 0.1
07:15 10.4 7.5 82 1018.3 7.6 SE 9.8 0.8 0.1
07:16 10.4 7.5 82 1018.3 9.2 N 9.8 0.8 0.1
07:17 10.4 7.5 82 1018.4 14.5 E 14.5 0.0 0.1
07:18 10.4 7.5 82 1018.1 7.6 NE 14.5 0.0 0.1
07:19 10.4 7.5 82 1018.5 5.4 NE 14.5 0.0 0.1
07:20 10.4 7.5 82 1018.3 6.0 NNE 14.5 0.8 0.1
07:21 10.4 7.5 82 1018.2 9.2 NW 14.5 0.8 0.1
07:22 10.4 7.5 82 1018.1 5.4 S 14.5 0.8 0.1
07:23 10.4 7.5 82 1018.2 6.0 N 14.5 0.8 0.1
07:25 10.4 7.5 82 1018.1 7.6 SE 14.5 0.8 0.2
07:26 10.4 7.5 82 1018.5 8.3 E 14.5 0.8 0.2
07:27 10.3 7.4 82 1018.4 8.3 NE 12.1 0.8 0.2
07:28 10.3 7.4 82 1018.4 6.9 E 9.2 0.8 0.2
07:29 10.3 7.4 82 1018.4 6.9 E 9.2 0.8 0.2
07:30 10.3 7.4 82 1018.3 9.2 SE 9.2 0.0 0.2
07:31 10.3 7.4 82 1018.5 6.9 NE 9.2 0.0 0.2
07:32 10.3 7.4 82 1018.2 7.6 NE 9.2 0.0 0.2
07:33 10.3 7.4 82 1018.4 9.2 E 9.2 0.0 0.2
07:34 10.3 7.4 82 1018.3 6.9 E 9.2 0.0 0.3
07:35 10.3 7.4 82 1018.3 4.5 E 9.2 0.8 0.3
07:36 10.3 7.4 82 1018.5 10.7 NE 10.7 0.8 0.3
07:37 10.3 7.4 82 1018.5 9.2 E 10.7 0.8 0.3
07:39 10.3 7.4 82 1018.6 9.2 E 10.7 1.5 0.3
07:40 10.3 7.4 82 1018.4 9.2 E 10.7 0.8 0.3
07:41 10.3 7.4 82 1018.4 11.4 NE 11.4 0.8 0.3
07:42 10.3 7.4 82 1018.4 8.3 N 11.4 0.8 0.3
07:43 10.3 7.4 82 1018.3 6.9 NE 11.4 0.8 0.3
07:44 10.3 7.4 82 1018.4 10.7 E 11.4 0.0 0.3
07:45 10.3 7.4 82 1018.5 5.4 SE 11.4 0.8 0.4
07:46 10.3 7.4 82 1018.4 6.9 NE 11.4 0.8 0.4
07:47 10.3 7.4 82 1018.4 6.9 NE 11.4 0.8 0.4
07:48 10.3 7.4 82 1018.6 6.0 N 11.4 0.8 0.4
07:49 10.3 7.4 82 1018.4 5.4 NE 11.4 1.5 0.4
07:50 10.3 7.4 82 1018.4 6.9 N 11.4 0.8 0.4
07:51 10.3 7.4 82 1018.5 6.0 SE 11.4 0.8 0.4
07:53 10.3 7.4 82 1018.2 11.4 E 11.4 0.8 0.4
07:54 10.3 7.4 82 1018.4 9.8 NE 11.4 0.0 0.4
07:55 10.3 7.4 82 1018.3 6.9 NE 11.4 0.8 0.5
07:56 10.3 7.4 82 1018.4 6.0 NE 11.4 0.8 0.5
07:57 10.3 7.4 82 1018.4 6.0 NE 11.4 0.8 0.5
07:58 10.3 7.4 82 1018.5 12.1 NE 12.1 0.8 0.5
07:59 10.3 7.4 82 1018.5 12.1 E 12.1 1.5 0.6
08:00 10.3 7.4 82 1018.4 11.4 NE 12.1 0.8 0.6
08:01 10.3 7.4 82 1018.6 7.6 SE 12.1 0.8 0.6
08:02 10.3 7.4 82 1018.5 12.1 N 12.1 1.5 0.6
08:03 10.3 7.4 82 1018.2 7.6 E 12.1 1.5 0.6
08:04 10.3 7.4 82 1018.4 4.5 NNW 12.1 1.5 0.7
08:05 10.3 7.4 82 1018.5 13.6 NE 13.6 1.5 0.7
08:07 10.3 7.4 82 1018.5 7.6 E 13.6 0.8 0.7
08:08 10.3 7.4 82 1018.3 8.3 S 13.6 0.8 0.7
08:09 10.3 7.4 82 1018.5 6.0 NE 13.6 0.0 0.7
08:10 10.3 7.4 82 1018.2 3.1 NE 13.6 0.0 0.7
08:11 10.3 7.4 82 1018.5 4.5 SE 13.6 0.0 0.7
08:12 10.3 7.4 82 1018.5 4.5 E 13.6 0.0 0.7
08:13 10.3 7.4 82 1018.4 6.0 NE 13.6 0.0 0.7
08:14 10.3 7.4 82 1018.5 6.0 E 13.6 0.0 0.8
08:15 10.3 7.4 82 1018.4 6.0 E 13.6 0.8 0.8
08:16 10.3 7.4 82 1018.3 11.4 E 11.4 0.8 0.8
08:17 10.3 7.4 82 1018.4 11.4 E 11.4 0.8 0.8
08:18 10.3 7.4 82 1018.5 10.7 E 11.4 0.8 0.8
08:19 10.3 7.4 82 1018.4 6.9 E 11.4 0.8 0.8
08:21 10.3 7.4 82 1018.4 6.0 NE 11.4 0.0 0.8
08:22 10.3 7.4 82 1018.5 6.9 NNW 11.4 0.0 0.8
08:23 10.3 7.5 83 1018.6 6.9 NE 11.4 0.0 0.8
08:24 10.3 7.5 83 1018.3 6.0 NE 11.4 0.0 0.8
08:25 10.3 7.5 83 1018.3 6.0 NE 11.4 0.0 0.8
08:26 10.3 7.5 83 1018.5 7.6 SW 11.4 0.0 0.8
08:27 10.3 7.5 83 1018.5 9.2 NE 10.7 0.0 0.8
08:28 10.3 7.5 83 1018.5 9.2 NE 10.7 0.0 0.8
08:29 10.3 7.5 83 1018.6 4.5 E 9.2 0.0 0.8
08:30 10.4 7.6 83 1018.3 5.4 E 9.2 0.0 0.8
08:31 10.4 7.6 83 1018.6 11.4 E 11.4 0.0 0.8
08:32 10.4 7.6 83 1018.3 11.4 NNE 11.4 0.0 0.8
08:33 10.4 7.6 83 1018.5 4.5 E 11.4 0.0 0.8
08:35 10.4 7.6 83 1018.7 6.9 N 11.4 0.0 0.8
08:36 10.4 7.6 83 1018.3 6.9 E 11.4 0.0 0.8
08:37 10.4 7.6 83 1018.6 6.0 W 11.4 0.0 0.8
08:38 10.4 7.6 83 1018.5 12.1 E 12.1 0.0 0.8
08:39 10.4 7.6 83 1018.7 4.5 E 12.1 0.0 0.8
08:40 10.4 7.6 83 1018.6 6.0 NE 12.1 0.0 0.8
08:41 10.4 7.6 83 1018.4 5.4 NE 12.1 0.0 0.8
08:42 10.4 7.6 83 1018.7 9.2 NNW 12.1 0.0 0.8
08:43 10.5 7.7 83 1018.6 6.0 NE 12.1 0.0 0.8
08:44 10.5 7.7 83 1018.5 6.0 E 12.1 0.0 0.8
08:45 10.5 7.7 83 1018.6 6.0 SE 12.1 0.0 0.8
08:46 10.5 7.7 83 1018.9 7.6 E 12.1 0.0 0.8
08:47 10.5 7.7 83 1018.7 9.2 E 12.1 0.0 0.8
08:49 10.5 7.7 83 1018.8 6.9 E 9.2 0.0 0.8
08:50 10.5 7.7 83 1018.6 8.3 NE 9.2 0.0 0.8
08:51 10.5 7.7 83 1018.7 9.2 NE 9.2 0.0 0.8
08:52 10.5 7.7 83 1018.7 9.2 W 9.2 0.0 0.8
08:53 10.5 7.7 83 1018.7 9.2 W 9.2 0.0 0.8
08:54 10.5 7.7 83 1018.7 6.0 NNE 9.2 0.0 0.8
08:55 10.5 7.7 83 1018.9 7.6 NNW 9.2 0.0 0.8
08:56 10.5 7.7 83 1018.8 3.8 SW 9.2 0.0 0.8
08:57 10.4 7.6 83 1018.8 3.1 NE 9.2 0.0 0.8
08:58 10.4 7.6 83 1019.0 3.1 SE 9.2 0.0 0.8
08:59 10.4 7.6 83 1018.7 5.4 SE 9.2 0.0 0.8
09:00 10.4 7.6 83 1018.8 5.4 SE 9.2 0.0 0.8
09:01 10.4 7.6 83 1018.7 5.4 SE 9.2 0.0 0.8
09:03 10.4 7.6 83 1018.7 5.4 SE 9.2 0.0 0.8
09:04 10.4 7.6 83 1018.8 5.4 SE 7.6 0.0 0.8
09:05 10.4 7.5 82 1018.8 7.6 NE 7.6 0.0 0.8
09:06 10.4 7.5 82 1018.8 7.6 NE 7.6 0.0 0.8
09:07 10.4 7.5 82 1018.8 4.5 E 7.6 0.0 0.8
09:08 10.4 7.5 82 1018.7 4.5 E 7.6 0.0 0.8
09:09 10.4 7.5 82 1018.9 3.8 NNW 7.6 0.0 0.8
09:10 10.4 7.5 82 1018.9 4.5 E 7.6 0.0 0.8
09:11 10.4 7.5 82 1019.0 6.0 NE 7.6 0.0 0.8
09:12 10.4 7.5 82 1018.8 4.5 NE 7.6 0.0 0.8
09:13 10.4 7.5 82 1018.7 5.4 E 7.6 0.0 0.8
09:14 10.4 7.5 82 1018.8 5.4 NE 8.3 0.0 0.8
09:15 10.4 7.5 82 1018.6 7.6 NNW 8.3 0.0 0.8
09:16 10.4 7.5 82 1018.8 9.2 E 9.2 0.0 0.8
09:17 10.4 7.5 82 1018.8 9.2 NE 9.2 0.0 0.8
09:18 10.4 7.5 82 1018.9 5.4 SW 9.2 0.0 0.8
09:20 10.5 7.6 82 1018.8 9.8 SE 13.0 0.0 0.8
09:21 10.5 7.6 82 1018.9 7.6 NE 13.0 0.0 0.8
09:22 10.5 7.6 82 1019.0 11.4 NE 13.0 0.0 0.8
09:23 10.6 7.7 82 1018.9 5.4 E 13.0 0.0 0.8
09:24 10.6 7.7 82 1018.9 5.4 E 13.0 0.0 0.8
09:25 10.6 7.7 82 1018.9 9.8 E 13.0 0.0 0.8
09:26 10.6 7.7 82 1018.8 7.6 NE 13.0 0.0 0.8
09:27 10.6 7.7 82 1018.9 8.3 ENE 13.0 0.0 0.8
09:28 10.6 7.7 82 1018.8 8.3 N 13.0 0.0 0.8
09:29 10.6 7.7 82 1018.9 5.4 E 13.0 0.0 0.8
09:30 10.6 7.7 82 1018.9 6.0 NE 13.0 0.0 0.8
09:31 10.6 7.7 82 1018.9 9.8 E 11.4 0.0 0.8
09:32 10.6 7.7 82 1019.0 9.2 NE 11.4 0.0 0.8
09:34 10.6 7.7 82 1019.0 8.3 E 9.8 0.0 0.8
09:35 10.6 7.7 82 1018.8 6.0 E 9.8 0.0 0.8
09:36 10.6 7.7 82 1018.7 11.4 NNW 11.4 0.0 0.8
09:37 10.6 7.7 82 1018.9 11.4 N 11.4 0.0 0.8
09:38 10.6 7.7 82 1018.7 14.5 E 14.5 0.0 0.8
09:39 10.6 7.7 82 1018.6 14.5 ENE 14.5 0.0 0.8
09:40 10.6 7.7 82 1018.8 10.7 NE 14.5 0.0 0.8
09:41 10.6 7.7 82 1019.0 11.4 NE 14.5 0.0 0.8
09:42 10.6 7.7 82 1018.8 11.4 NE 14.5 0.0 0.8
09:43 10.6 7.7 82 1019.1 6.0 NE 14.5 0.0 0.8
09:44 10.6 7.7 82 1018.8 7.6 NW 14.5 0.0 0.8
09:45 10.6 7.7 82 1018.9 8.3 E 14.5 0.0 0.8
09:46 10.6 7.7 82 1018.9 9.8 W 14.5 0.0 0.8
09:48 10.6 7.7 82 1018.9 7.6 SW 14.5 0.0 0.8
09:49 10.6 7.7 82 1019.0 7.6 NNW 11.4 0.0 0.8
09:50 10.6 7.7 82 1018.8 6.0 NE 11.4 0.0 0.8
09:51 10.6 7.7 82 1018.8 9.2 SE 11.4 0.0 0.8
09:52 10.6 7.7 82 1018.8 9.2 SE 11.4 0.0 0.8
09:53 10.6 7.7 82 1018.7 8.3 NE 9.8 0.0 0.8
09:54 10.6 7.7 82 1018.9 5.4 E 9.8 0.0 0.8
09:55 10.6 7.7 82 1018.9 8.3 ENE 9.8 0.0 0.8
09:56 10.6 7.7 82 1018.7 10.7 S 10.7 0.0 0.8
09:57 10.6 7.7 82 1018.9 13.0 NE 13.0 0.0 0.8
09:58 10.6 7.7 82 1018.8 6.9 E 13.0 0.0 0.8
09:59 10.6 7.7 82 1018.9 15.9 NNW 15.9 0.0 0.8
10:00 10.6 7.7 82 1018.8 11.4 E 15.9 0.0 0.8
10:02 10.6 7.7 82 1018.9 11.4 E 15.9 0.0 0.8
10:03 10.6 7.7 82 1019.0 11.4 E 15.9 0.0 0.8
10:04 10.6 7.7 82 1018.8 11.4 E 15.9 0.0 0.8
10:05 10.6 7.7 82 1018.9 10.7 W 15.9 0.0 0.8
10:06 10.6 7.7 82 1019.0 10.7 W 15.9 0.0 0.8
10:07 10.6 7.7 82 1018.9 6.9 E 15.9 0.0 0.8
10:08 10.6 7.7 82 1019.0 6.9 E 15.9 0.0 0.8
10:09 10.6 7.7 82 1019.0 7.6 NE 15.9 0.0 0.8
10:10 10.6 7.7 82 1019.1 9.8 NE 11.4 0.0 0.8
10:11 10.6 7.7 82 1018.9 9.2 E 11.4 0.0 0.8
10:12 10.6 7.7 82 1019.0 9.2 E 11.4 0.0 0.8
10:13 10.6 7.7 82 1018.9 11.4 NE 11.4 0.0 0.8
10:14 10.6 7.7 82 1018.7 13.6 ESE 13.6 0.0 0.8
10:16 10.6 7.7 82 1018.8 9.8 E 13.6 0.0 0.8
10:17 10.6 7.7 82 1018.9 5.4 E 13.6 0.0 0.8
10:18 10.6 7.7 82 1019.1 11.4 E 13.6 0.0 0.8
10:19 10.6 7.7 82 1019.1 7.6 ENE 13.6 0.0 0.8
10:20 10.6 7.7 82 1019.1 7.6 ENE 13.6 0.0 0.8
10:21 10.6 7.7 82 1019.0 8.3 NE 13.6 0.0 0.8
10:22 10.6 7.7 82 1018.9 9.8 NE 13.6 0.0 0.8
10:23 10.6 7.7 82 1018.9 6.9 W 13.6 0.0 0.8
10:24 10.6 7.7 82 1019.1 9.8 E 13.6 0.0 0.8
10:25 10.6 7.7 82 1019.0 9.2 S 13.6 0.0 0.8
10:26 10.6 7.7 82 1018.9 6.9 NE 13.6 0.0 0.8
10:27 10.6 7.7 82 1019.0 4.5 NE 13.6 0.0 0.8
10:28 10.6 7.7 82 1019.0 6.0 NE 13.6 0.0 0.8
10:30 10.6 7.7 82 1019.0 6.9 NE 10.7 0.0 0.8
10:31 10.7 7.8 82 1019.0 4.5 W 10.7 0.0 0.8
10:32 10.7 7.8 82 1019.1 4.5 N 10.7 0.0 0.8
10:33 10.7 7.8 82 1019.0 5.4 E 10.7 0.0 0.8
10:34 10.7 7.8 82 1019.0 9.8 SW 10.7 0.0 0.8
10:35 10.7 7.8 82 1019.1 9.8 NE 10.7 0.0 0.8
10:36 10.7 7.8 82 1019.0 6.0 NNW 10.7 0.0 0.8
10:37 10.7 7.8 82 1019.1 7.6 NE 10.7 0.0 0.8
10:38 10.7 7.8 82 1018.9 8.3 N 10.7 0.0 0.8
10:39 10.7 7.8 82 1018.9 4.5 NE 10.7 0.0 0.8
10:40 10.7 7.8 82 1019.0 4.5 E 9.8 0.0 0.8
10:41 10.7 7.8 82 1019.3 6.0 NE 9.8 0.0 0.8
10:42 10.7 7.8 82 1019.1 4.5 NE 9.8 0.0 0.8
10:44 10.8 7.9 82 1018.8 3.8 NE 9.8 0.8 0.8
10:45 10.8 7.9 82 1018.7 6.9 E 9.8 0.8 0.8
10:46 10.8 7.9 82 1018.9 9.2 NE 9.8 0.8 0.8
10:47 10.8 7.9 82 1019.0 4.5 NE 9.8 0.8 0.8
10:48 10.8 7.9 82 1019.0 4.5 NE 9.8 0.0 0.8
10:49 10.8 7.9 82 1019.0 5.4 E 9.8 0.0 0.8
10:50 10.8 7.9 82 1018.9 6.9 ENE 9.8 0.0 0.8
10:51 10.8 7.9 82 1018.9 9.2 W 9.8 0.8 0.9
10:52 10.8 7.9 82 1018.9 7.6 E 9.8 0.8 0.9
10:53 10.7 7.8 82 1018.9 7.6 NE 9.8 0.8 0.9
10:54 10.7 7.8 82 1018.9 9.2 NE 9.2 0.8 0.9
10:55 10.7 7.8 82 1018.8 3.8 NNW 9.2 1.5 0.9
10:56 10.7 7.8 82 1019.1 8.3 SE 9.2 0.8 0.9
10:58 10.7 7.8 82 1019.0 8.3 NE 9.2 0.8 0.9
10:59 10.7 7.8 82 1019.1 4.5 ESE 9.2 0.8 1.0
11:00 10.7 7.8 82 1018.9 4.5 ESE 9.2 0.8 1.0
11:01 10.7 7.8 82 1018.8 4.5 ESE 9.2 0.8 1.0
11:02 10.7 7.8 82 1018.9 4.5 ESE 9.2 0.8 1.0
11:03 10.7 7.8 82 1018.9 7.6 NE 9.2 2.3 1.1
11:04 10.7 7.8 82 1018.9 3.1 E 9.2 3.0 1.2
11:05 10.7 7.8 82 1019.0 3.8 SE 9.2 2.3 1.2
11:06 10.7 7.8 82 1018.9 6.0 NNW 9.2 2.3 1.2
11:07 10.7 7.8 82 1018.9 6.9 E 9.2 2.3 1.2
11:08 10.7 7.8 82 1019.0 6.0 SW 8.3 0.8 1.2
11:09 10.7 7.8 82 1018.8 6.0 SE 7.6 0.0 1.2
11:10 10.7 7.8 82 1019.0 3.8 NNW 7.6 0.0 1.2
11:11 10.7 7.9 83 1019.0 3.8 E 7.6 0.0 1.2
11:13 10.7 7.9 83 1018.8 3.8 SE 7.6 0.0 1.2
11:14 10.7 7.9 83 1018.8 6.9 W 6.9 0.8 1.3
11:15 10.7 7.9 83 1018.8 5.4 N 6.9 0.8 1.3
11:16 10.7 7.9 83 1019.0 5.4 N 6.9 0.8 1.3
11:18 10.7 7.9 83 1018.8 5.4 SW 6.9 0.8 1.3
11:19 10.7 7.9 83 1018.9 4.5 NE 6.9 0.8 1.3
11:20 10.7 7.9 83 1018.8 4.5 E 6.9 0.8 1.3
11:21 10.7 7.9 83 1018.9 6.0 E 6.9 0.8 1.3
11:22 10.7 7.9 83 1018.8 8.3 ESE 8.3 0.8 1.3
11:23 10.7 7.9 83 1018.8 9.2 S 9.2 0.8 1.3
11:24 10.7 7.9 83 1018.9 9.2 NE 9.2 0.0 1.3
11:25 10.7 7.9 83 1018.8 5.4 SE 9.2 0.0 1.3
11:26 10.7 7.9 83 1018.8 9.2 W 9.2 0.0 1.3
11:27 10.7 7.9 83 1018.9 8.3 E 9.2 0.0 1.3
11:28 10.7 7.9 83 1018.9 8.3 NE 9.2 0.0 1.3
11:29 10.7 7.9 83 1018.9 3.8 NNW 9.2 0.0 1.3
11:30 10.7 7.9 83 1019.1 3.8 NNW 9.2 0.0 1.3
11:32 10.7 7.9 83 1019.0 7.6 NE 9.2 0.0 1.3
11:33 10.7 7.9 83 1019.0 3.1 NE 9.2 0.0 1.3
11:34 10.7 7.9 83 1018.9 3.8 NE 9.2 0.0 1.3
11:35 10.7 7.9 83 1018.8 3.8 NE 9.2 0.0 1.3
11:36 10.7 7.9 83 1018.8 3.8 NE 9.2 0.0 1.3
11:37 10.7 7.9 83 1018.8 6.0 E 8.3 0.0 1.3
11:38 10.7 7.9 83 1018.9 4.5 E 8.3 0.0 1.3
11:39 10.7 7.9 83 1018.8 5.4 NE 7.6 0.0 1.3
11:40 10.7 7.9 83 1018.7 8.3 NE 8.3 0.0 1.3
11:41 10.8 8.0 83 1018.9 8.3 NE 8.3 0.0 1.3
11:42 10.8 8.0 83 1019.0 4.5 E 8.3 0.0 1.3
11:43 10.8 8.0 83 1018.9 4.5 E 8.3 0.0 1.3
11:44 10.8 8.0 83 1018.9 4.5 SSE 8.3 0.0 1.3
11:46 10.8 8.0 83 1018.9 6.9 NE 8.3 0.0 1.3
11:47 10.8 8.0 83 1018.9 3.8 E 8.3 0.0 1.3
11:48 10.8 8.0 83 1018.9 3.1 E 8.3 0.0 1.3
11:49 10.8 8.0 83 1018.9 6.0 W 8.3 0.0 1.3
11:50 10.8 8.0 83 1018.9 6.0 W 8.3 0.0 1.3
11:51 10.8 8.0 83 1018.9 6.0 E 6.9 0.0 1.3
11:52 10.8 8.0 83 1018.9 6.0 NE 6.9 0.0 1.3
11:53 10.8 8.0 83 1019.0 5.4 N 6.9 0.0 1.3
11:54 10.8 8.0 83 1019.0 4.5 W 6.9 0.0 1.3
11:55 10.8 8.0 83 1019.0 9.8 NE 9.8 0.0 1.3
11:56 10.8 8.0 83 1019.0 6.0 E 9.8 0.0 1.3
11:57 10.8 8.0 83 1018.9 4.5 ENE 9.8 0.0 1.3
11:59 10.8 8.0 83 1018.9 8.3 E 9.8 0.0 1.3
12:00 10.8 8.0 83 1019.0 8.3 E 9.8 0.0 1.3
12:01 10.8 8.0 83 1019.0 8.3 E 9.8 0.0 1.3
12:02 10.8 8.0 83 1019.1 8.3 E 9.8 0.0 1.3
12:03 10.9 8.1 83 1018.9 6.9 E 9.8 0.0 1.3
12:04 10.9 8.1 83 1018.9 6.9 E 9.8 0.0 1.3
12:05 10.9 8.1 83 1018.9 6.9 E 9.8 0.0 1.3
12:06 10.9 8.1 83 1018.9 6.0 E 8.3 0.0 1.3
12:07 10.9 8.1 83 1018.9 6.0 N 8.3 0.0 1.3
12:08 10.9 8.1 83 1018.8 10.7 ENE 10.7 0.0 1.3
12:09 10.9 8.1 83 1018.6 9.2 NE 10.7 0.0 1.3
12:10 10.9 8.1 83 1019.0 8.3 S 10.7 0.0 1.3
12:11 10.9 8.1 83 1018.9 6.0 NE 10.7 0.8 1.4
12:12 10.9 8.1 83 1019.0 6.0 NE 10.7 0.8 1.4
12:14 10.9 8.1 83 1018.8 5.4 NW 10.7 0.8 1.4
12:15 11.0 8.2 83 1018.7 7.6 NE 10.7 0.8 1.4
12:16 11.0 8.2 83 1018.9 6.9 E 10.7 0.0 1.4
12:17 11.0 8.2 83 1018.9 7.6 E 10.7 0.0 1.4
12:18 11.0 8.2 83 1018.9 7.6 E 10.7 0.0 1.4
12:19 11.0 8.2 83 1019.0 10.7 W 10.7 0.0 1.4
12:20 11.0 8.2 83 1018.7 10.7 E 10.7 0.0 1.4
12:21 11.0 8.2 83 1018.9 6.9 NE 10.7 0.0 1.4
12:22 11.0 8.2 83 1019.0 5.4 E 10.7 0.0 1.4
12:23 11.0 8.2 83 1019.0 6.0 ENE 10.7 0.0 1.4
12:24 11.1 8.3 83 1019.1 9.8 SE 10.7 0.0 1.4
12:25 11.1 8.3 83 1019.2 6.9 NE 10.7 0.0 1.4
12:26 11.1 8.3 83 1018.9 9.2 NNE 10.7 0.0 1.4
12:28 11.1 8.3 83 1018.9 6.0 NNW 10.7 0.0 1.4
12:29 11.1 8.3 83 1019.1 9.2 NE 10.7 0.0 1.4
12:30 11.1 8.3 83 1018.9 6.9 E 9.8 0.0 1.4
12:31 11.1 8.3 83 1019.1 9.8 NE 9.8 0.0 1.4
12:32 11.1 8.3 83 1019.1 9.8 NE 9.8 0.0 1.4
12:33 11.1 8.3 83 1019.1 6.9 W 9.8 0.0 1.4
12:34 11.1 8.3 83 1019.0 6.0 E 9.8 0.8 1.4
12:35 11.1 8.3 83 1018.9 6.0 NE 9.8 0.8 1.4
12:36 11.1 8.3 83 1018.9 8.3 NE 9.8 0.8 1.4
12:37 11.1 8.3 83 1019.0 8.3 E 9.8 0.8 1.4
12:38 11.1 8.3 83 1018.9 6.9 E 9.8 0.8 1.4
12:39 11.1 8.3 83 1019.0 6.0 NNW 9.8 0.0 1.4
12:40 11.1 8.3 83 1018.9 8.3 E 9.8 0.0 1.4
12:42 11.1 8.3 83 1019.1 4.5 NE 8.3 0.0 1.4
12:43 11.1 8.3 83 1018.9 6.9 S 8.3 0.0 1.4
12:44 11.1 8.3 83 1018.9 6.0 N 8.3 0.0 1.4
12:45 11.1 8.3 83 1019.0 10.7 NE 10.7 0.0 1.4
12:46 11.1 8.3 83 1019.1 8.3 NE 10.7 0.0 1.4
12:47 11.1 8.3 83 1019.0 9.8 NE 10.7 0.0 1.4
12:48 11.0 8.2 83 1019.1 9.2 NE 10.7 0.0 1.4
12:49 11.0 8.2 83 1018.9 9.8 SE 10.7 0.8 1.5
12:50 11.0 8.0 82 1018.9 6.0 E 10.7 0.8 1.5
12:51 11.0 8.0 82 1019.1 5.4 SE 10.7 0.8 1.5
12:52 10.9 8.0 82 1018.9 9.8 NNE 10.7 0.8 1.5
12:53 10.9 8.0 82 1019.0 7.6 E 10.7 0.8 1.5
12:54 10.9 8.0 82 1019.0 12.1 E 12.1 0.0 1.5
12:56 10.8 7.9 82 1019.0 8.3 W 12.1 0.0 1.5
12:57 10.8 7.9 82 1019.1 3.8 NE 12.1 0.0 1.5
12:58 10.8 7.9 82 1019.0 6.0 N 12.1 0.0 1.5
12:59 10.8 7.9 82 1019.0 8.3 E 12.1 0.0 1.5
13:00 10.8 7.9 82 1019.0 8.3 E 12.1 0.0 1.5
13:01 10.8 7.9 82 1018.9 8.3 E 12.1 0.0 1.5
13:02 10.8 7.9 82 1018.8 8.3 E 12.1 0.0 1.5
13:03 10.7 7.8 82 1018.9 10.7 E 12.1 0.0 1.5
13:04 10.7 7.8 82 1018.9 6.9 WNW 12.1 0.0 1.5
13:05 10.7 7.8 82 1018.9 8.3 NNW 10.7 0.0 1.5
13:06 10.7 7.8 82 1019.0 8.3 E 11.4 0.0 1.5
13:07 10.7 7.8 82 1018.8 7.6 NE 11.4 0.0 1.6
13:09 10.7 7.8 82 1018.7 6.0 NE 11.4 0.8 1.6
13:10 10.7 7.8 82 1018.8 9.2 NE 11.4 0.8 1.6
13:11 10.8 7.9 82 1018.8 8.3 E 11.4 0.8 1.6
13:12 10.8 7.9 82 1018.9 7.6 N 11.4 0.8 1.6
13:13 10.8 7.9 82 1018.8 8.3 NE 11.4 0.0 1.6
13:14 10.8 7.9 82 1018.9 6.0 E 11.4 0.0 1.6
13:16 10.8 7.9 82 1018.8 8.3 E 9.2 0.0 1.6
13:17 10.8 7.9 82 1018.8 5.4 N 9.2 0.0 1.6
13:18 10.8 7.9 82 1019.0 5.4 S 9.2 0.0 1.6
13:19 10.8 7.9 82 1018.8 9.2 NE 9.2 0.0 1.6
13:20 10.8 7.9 82 1018.8 9.2 NE 9.2 0.0 1.6
13:21 10.8 7.9 82 1019.1 5.4 NE 9.2 0.0 1.6
13:22 10.8 7.9 82 1018.8 4.5 N 9.2 0.0 1.6
13:23 10.8 7.9 82 1018.8 6.0 NW 9.2 0.0 1.6
13:24 10.8 7.9 82 1018.9 3.1 NNW 9.2 0.0 1.6
13:25 10.8 7.9 82 1018.8 3.1 NW 9.2 0.0 1.6
13:26 10.8 7.9 82 1018.8 2.2 NE 9.2 0.8 1.6
13:27 10.8 7.9 82 1018.7 6.9 NNW 9.2 0.8 1.6
13:29 10.9 8.0 82 1018.7 11.4 NE 11.4 0.8 1.6
13:30 10.9 8.0 82 1018.9 11.4 NE 11.4 0.8 1.6
13:31 10.9 8.0 82 1018.8 7.6 NE 11.4 0.0 1.6
13:32 10.9 8.0 82 1018.8 3.1 NNW 11.4 0.0 1.6
13:33 10.9 8.0 82 1018.8 5.4 NE 11.4 0.0 1.6
13:34 10.9 8.0 82 1018.8 3.8 NE 11.4 0.0 1.6
13:35 10.9 8.0 82 1018.7 4.5 NE 11.4 0.0 1.6
13:36 10.9 8.0 82 1018.6 4.5 E 11.4 0.0 1.6
13:37 10.9 8.0 82 1018.7 3.1 N 11.4 0.0 1.6
13:38 10.9 8.0 82 1018.8 3.1 W 11.4 0.0 1.6
13:39 10.9 8.0 82 1018.7 3.1 S 11.4 0.0 1.6
13:40 10.9 8.0 82 1018.9 2.2 E 11.4 0.0 1.6
13:41 10.9 8.0 82 1018.6 3.1 NE 7.6 0.0 1.6
13:42 10.9 8.0 82 1018.8 2.2 W 5.4 0.0 1.7
13:43 10.9 8.0 82 1018.8 2.2 E 5.4 0.8 1.7
13:45 10.9 8.0 82 1019.0 2.2 S 4.5 0.8 1.7
13:46 11.0 8.0 82 1018.8 2.2 E 3.8 0.8 1.7
13:47 11.0 8.0 82 1018.8 1.6 S 3.8 0.8 1.7
13:48 11.0 8.0 82 1018.7 1.6 E 3.8 0.0 1.7
13:49 11.0 8.0 82 1018.7 1.6 N 3.8 0.0 1.8
13:50 11.0 8.0 82 1018.7 1.6 N 3.8 0.8 1.8
13:51 11.0 8.0 82 1018.7 2.2 SW 3.8 0.8 1.8
13:52 11.0 8.0 82 1018.7 3.8 S 3.8 0.8 1.8
13:53 11.0 8.0 82 1018.7 3.8 NNW 3.8 0.8 1.8
13:54 11.0 8.2 83 1018.7 3.8 S 3.8 0.8 1.8
13:55 11.0 8.2 83 1018.8 3.1 NNW 3.8 0.0 1.8
13:56 11.0 8.2 83 1018.5 0.7 NE 3.8 0.0 1.8
13:57 11.0 8.2 83 1018.6 0.7 E 3.8 0.0 1.8
13:58 11.0 8.2 83 1018.8 0.7 SE 3.8 0.0 1.8
13:59 11.0 8.2 83 1018.7 0.7 NE 3.8 0.0 1.8
14:01 11.0 8.2 83 1018.8 0.7 NE 3.8 0.0 1.8
14:02 11.0 8.2 83 1018.7 0.7 NE 3.8 0.0 1.8
14:03 11.1 8.3 83 1018.7 1.6 SE 3.8 0.0 1.8
14:04 11.1 8.3 83 1018.9 1.6 NNW 3.1 0.0 1.8
14:05 11.1 8.3 83 1018.9 1.6 NNW 3.1 0.0 1.8
14:06 11.1 8.3 83 1019.0 0.7 N 2.2 0.0 1.8
14:07 11.1 8.3 83 1018.9 1.6 S 2.2 0.0 1.8
14:08 11.2 8.4 83 1018.9 2.2 SE 2.2 0.0 1.8
14:09 11.2 8.4 83 1018.7 2.2 S 2.2 0.0 1.8
14:10 11.2 8.4 83 1018.9 2.2 E 2.2 0.0 1.8
14:11 11.2 8.4 83 1018.7 1.6 S 2.2 0.0 1.8
14:12 11.2 8.4 83 1018.5 0.7 ENE 2.2 0.0 1.8
14:13 11.2 8.4 83 1018.7 1.6 W 2.2 0.0 1.8
14:14 11.2 8.4 83 1018.7 2.2 S 2.2 0.0 1.8
14:16 11.3 8.5 83 1018.7 4.5 E 4.5 0.0 1.8
14:17 11.3 8.5 83 1018.8 4.5 NE 4.5 0.0 1.8
14:18 11.3 8.5 83 1018.8 3.1 E 4.5 0.0 1.8
14:19 11.3 8.5 83 1018.8 3.8 NE 4.5 0.0 1.8
14:20 11.4 8.6 83 1018.7 3.8 E 4.5 0.0 1.8
14:21 11.4 8.6 83 1018.7 3.8 E 4.5 0.0 1.8
14:22 11.4 8.6 83 1018.6 3.8 S 4.5 0.0 1.8
14:23 11.4 8.6 83 1018.8 3.8 S 4.5 0.0 1.8
14:24 11.4 8.6 83 1018.8 1.6 S 4.5 0.0 1.8
14:25 11.5 8.7 83 1018.4 2.2 S 4.5 0.0 1.8
14:26 11.5 8.7 83 1018.6 1.6 S 4.5 0.0 1.8
14:27 11.5 8.7 83 1018.9 3.8 SE 4.5 0.0 1.8
14:28 11.6 8.8 83 1018.7 4.5 S 4.5 0.0 1.8
14:29 11.6 8.8 83 1018.8 3.1 S 4.5 0.0 1.8
14:31 11.6 8.6 82 1018.7 3.8 NE 4.5 0.0 1.8
14:32 11.6 8.6 82 1018.7 3.8 S 4.5 0.0 1.8
14:33 11.6 8.6 82 1018.8 3.8 S 4.5 0.0 1.8
14:34 11.7 8.7 82 1018.5 3.8 N 4.5 0.0 1.8
14:35 11.7 8.7 82 1018.6 3.1 S 4.5 0.0 1.8
14:36 11.7 8.7 82 1018.6 3.1 S 4.5 0.0 1.8
14:37 11.7 8.7 82 1018.9 4.5 S 4.5 0.0 1.8
14:38 11.7 8.7 82 1018.8 5.4 S 5.4 0.0 1.8
14:39 11.7 8.6 81 1018.7 6.0 S 6.0 0.0 1.8
14:40 11.7 8.6 81 1018.9 6.0 E 6.0 0.0 1.8
14:41 11.7 8.6 81 1018.5 3.1 N 6.0 0.0 1.8
14:42 11.7 8.6 81 1018.6 6.9 S 6.9 0.0 1.8
14:43 11.7 8.6 81 1018.7 6.9 S 6.9 0.0 1.8
14:44 11.8 8.6 81 1018.6 3.8 S 6.9 0.0 1.8
14:45 11.8 8.5 80 1018.7 6.9 S 6.9 0.0 1.8
14:47 11.8 8.5 80 1018.7 3.8 S 6.9 0.0 1.8
14:48 11.8 8.5 80 1018.6 3.8 S 6.9 0.0 1.8
14:49 11.8 8.5 80 1018.8 4.5 SE 6.9 0.0 1.8
14:50 11.8 8.5 80 1018.6 4.5 S 6.9 0.0 1.8
14:51 11.9 8.6 80 1018.5 4.5 SE 6.9 0.0 1.8
14:52 11.9 8.6 80 1018.5 4.5 SE 6.9 0.0 1.8
14:53 11.9 8.6 80 1018.8 6.0 S 6.9 0.0 1.8
14:54 11.9 8.4 79 1018.6 6.0 SW 6.9 0.0 1.8
14:55 11.9 8.4 79 1018.7 8.3 SE 8.3 0.0 1.8
14:56 11.8 8.3 79 1018.6 6.0 W 8.3 0.0 1.8
14:57 11.8 8.3 79 1018.7 3.8 SW 8.3 0.0 1.8
14:58 11.8 8.3 79 1018.8 6.0 S 8.3 0.0 1.8
14:59 11.8 8.1 78 1018.8 3.8 SW 8.3 0.0 1.8
15:00 11.8 8.1 78 1018.7 3.8 NNW 8.3 0.0 1.8
15:01 11.8 8.1 78 1018.8 3.8 NNW 8.3 0.0 1.8
15:02 11.8 8.1 78 1018.7 3.8 NNW 8.3 0.0 1.8
15:03 11.8 8.1 78 1018.6 3.8 NNW 8.3 0.0 1.8
15:04 11.8 8.1 78 1018.8 3.8 NNW 8.3 0.0 1.8
15:06 11.7 7.8 77 1018.7 3.8 S 7.6 0.0 1.8
15:07 11.7 7.8 77 1018.4 4.5 S 7.6 0.0 1.8
15:08 11.7 7.8 77 1018.8 3.1 S 7.6 0.0 1.8
15:09 11.7 7.8 77 1018.8 3.1 SW 7.6 0.0 1.8
15:10 11.7 7.8 77 1018.7 3.1 N 7.6 0.0 1.8
15:11 11.7 7.8 77 1018.6 3.1 S 7.6 0.0 1.8
15:12 11.7 7.8 77 1018.7 5.4 ESE 7.6 0.0 1.8
15:13 11.7 7.8 77 1018.7 5.4 S 7.6 0.0 1.8
15:14 11.7 7.8 77 1018.7 5.4 SE 7.6 0.0 1.8
15:15 11.7 7.8 77 1018.7 6.0 NE 7.6 0.0 1.8
15:16 11.7 7.8 77 1018.8 3.1 E 6.0 0.0 1.8
15:17 11.7 7.8 77 1018.8 3.8 S 6.0 0.0 1.8
15:18 11.7 7.8 77 1018.8 6.9 S 6.9 0.0 1.8
15:19 11.7 7.8 77 1018.5 3.8 SW 6.9 0.0 1.8
15:20 11.7 7.8 77 1018.6 6.0 S 6.9 0.0 1.8
15:21 11.7 7.8 77 1019.0 6.0 SE 6.9 0.0 1.8
15:22 11.7 7.8 77 1018.7 5.4 SE 6.9 0.0 1.8
15:23 11.7 7.8 77 1018.5 6.9 S 6.9 0.0 1.8
15:25 11.7 7.8 77 1018.9 3.8 SW 6.9 0.0 1.8
15:26 11.7 7.8 77 1018.7 3.8 SW 6.9 0.0 1.8
15:27 11.6 7.7 77 1018.6 4.5 N 6.9 0.0 1.8
15:28 11.6 7.7 77 1018.8 3.1 S 6.9 0.0 1.8
15:29 11.6 7.7 77 1018.8 3.1 S 6.9 0.0 1.8
15:30 11.6 7.7 77 1018.7 3.1 S 6.9 0.0 1.8
15:31 11.6 7.7 77 1018.8 2.2 S 6.9 0.0 1.8
15:32 11.6 7.7 77 1018.8 3.1 SE 6.9 0.0 1.8
15:33 11.6 7.7 77 1018.7 3.8 S 6.9 0.0 1.8
15:34 11.6 7.7 77 1018.9 2.2 S 6.9 0.0 1.8
15:35 11.6 7.7 77 1018.7 2.2 S 4.5 0.0 1.8
15:36 11.6 7.7 77 1018.8 3.1 S 4.5 0.0 1.8
15:37 11.6 7.7 77 1018.7 3.1 S 4.5 0.0 1.8
15:38 11.6 7.7 77 1018.8 6.0 S 6.0 0.0 1.8
15:40 11.6 7.7 77 1018.8 3.1 S 6.0 0.0 1.8
15:41 11.6 7.7 77 1018.8 3.8 S 6.0 0.0 1.8
15:42 11.6 7.7 77 1018.7 3.8 SW 6.0 0.0 1.8
15:43 11.6 7.7 77 1018.9 6.0 S 6.0 0.0 1.8
15:44 11.6 7.7 77 1018.9 6.0 S 6.0 0.0 1.8
15:45 11.7 7.8 77 1018.8 3.8 S 6.0 0.0 1.8
15:46 11.7 8.0 78 1018.8 4.5 SE 6.0 0.0 1.8
15:47 11.7 8.0 78 1019.0 3.8 SE 6.0 0.0 1.8
15:48 11.7 8.0 78 1018.9 6.0 S 6.0 0.0 1.8
15:49 11.7 8.0 78 1018.8 3.8 SE 6.0 0.0 1.8
15:50 11.7 8.0 78 1018.9 3.8 E 6.0 0.0 1.8
15:51 11.7 8.0 78 1018.8 4.5 S 6.0 0.0 1.8
15:52 11.8 7.9 77 1018.7 3.8 S 6.0 0.0 1.8
15:54 11.8 7.9 77 1018.9 6.9 S 6.9 0.0 1.8
15:55 11.9 8.0 77 1018.8 6.9 SE 7.6 0.0 1.8
15:56 11.9 8.0 77 1018.8 4.5 S 7.6 0.0 1.8
15:57 12.0 8.1 77 1018.7 4.5 S 7.6 0.0 1.8
15:58 12.0 8.1 77 1018.8 5.4 S 7.6 0.0 1.8
15:59 12.0 8.1 77 1018.8 5.4 S 7.6 0.0 1.8
16:00 12.1 8.2 77 1018.7 4.5 NNW 7.6 0.0 1.8
16:01 12.1 8.2 77 1018.9 4.5 NNW 7.6 0.0 1.8
16:02 12.1 8.2 77 1018.7 4.5 NNW 7.6 0.0 1.8
16:03 12.1 8.2 77 1018.9 4.5 NNW 7.6 0.0 1.8
16:04 12.1 8.2 77 1018.7 4.5 NNW 7.6 0.0 1.8
16:05 12.1 8.2 77 1018.8 4.5 NNW 7.6 0.0 1.8
16:06 12.2 8.1 76 1018.7 4.5 S 5.4 0.0 1.8
16:08 12.2 7.9 75 1018.9 5.4 S 6.0 0.0 1.8
16:09 12.2 7.9 75 1018.6 3.8 SE 6.0 0.0 1.8
16:10 12.2 7.9 75 1018.7 3.8 SE 6.0 0.0 1.8
16:11 12.2 7.9 75 1018.9 6.0 S 6.0 0.0 1.8
16:12 12.2 7.9 75 1018.8 6.9 S 6.9 0.0 1.8
16:13 12.2 7.9 75 1018.8 6.9 S 6.9 0.0 1.8
16:14 12.2 7.9 75 1018.7 7.6 SE 7.6 0.0 1.8
16:15 12.2 7.9 75 1018.8 6.9 S 7.6 0.0 1.8
16:16 12.1 7.6 74 1018.8 5.4 SE 7.6 0.0 1.8
16:17 12.1 7.6 74 1019.0 4.5 S 7.6 0.0 1.8
16:18 12.1 7.6 74 1018.8 6.9 SE 7.6 0.0 1.8
16:19 12.1 7.6 74 1018.8 7.6 S 7.6 0.0 1.8
16:20 12.1 7.6 74 1018.8 7.6 S 7.6 0.0 1.8
16:21 12.0 7.5 74 1018.7 5.4 S 7.6 0.0 1.8
16:23 12.0 7.3 73 1018.8 5.4 S 7.6 0.0 1.8
16:24 12.0 7.3 73 1018.7 8.3 S 8.3 0.0 1.8
16:25 12.0 7.3 73 1018.7 8.3 S 8.3 0.0 1.8
16:26 11.9 7.2 73 1019.0 7.6 S 8.3 0.0 1.8
16:27 11.9 7.2 73 1018.6 3.8 S 8.3 0.0 1.8
16:28 11.9 7.2 73 1018.6 3.8 S 8.3 0.0 1.8
16:29 11.9 7.2 73 1018.7 3.8 S 8.3 0.0 1.8
16:30 11.8 7.1 73 1018.8 4.5 S 8.3 0.0 1.8
16:31 11.8 7.1 73 1018.7 5.4 S 8.3 0.0 1.8
16:32 11.8 7.1 73 1018.7 5.4 S 8.3 0.0 1.8
16:33 11.8 7.1 73 1018.7 4.5 S 8.3 0.0 1.8
16:34 11.8 6.9 72 1018.8 3.8 S 8.3 0.0 1.8
16:35 11.8 6.9 72 1018.8 2.2 SE 8.3 0.0 1.8
16:36 11.8 7.1 73 1018.6 2.2 SE 7.6 0.0 1.8
16:38 11.8 7.1 73 1018.7 2.2 N 7.6 0.0 1.8
16:39 11.7 7.0 73 1018.7 3.1 S 7.6 0.0 1.8
16:40 11.7 7.0 73 1018.7 3.1 S 7.6 0.0 1.8
16:41 11.7 7.0 73 1018.9 3.1 SE 5.4 0.0 1.8
16:42 11.7 6.8 72 1018.8 1.6 SW 5.4 0.0 1.8
16:43 11.7 6.8 72 1019.0 3.1 SW 3.8 0.0 1.8
16:44 11.7 6.8 72 1018.8 3.1 SE 3.8 0.0 1.8
16:45 11.7 6.8 72 1018.9 3.1 SW 3.8 0.0 1.8
16:46 11.7 6.8 72 1018.8 2.2 SE 3.8 0.0 1.8
16:47 11.7 6.8 72 1018.8 2.2 NE 3.8 0.0 1.8
16:48 11.7 6.8 72 1018.9 1.6 ESE 3.8 0.0 1.8
16:49 11.7 6.8 72 1019.0 1.6 E 3.8 0.0 1.8
16:50 11.7 6.8 72 1018.6 1.6 N 3.8 0.0 1.8
16:52 11.7 6.8 72 1018.6 1.6 SE 3.8 0.0 1.8
16:53 11.7 6.8 72 1018.8 1.6 NE 3.8 0.0 1.8
16:54 11.7 7.0 73 1018.7 1.6 NE 3.8 0.0 1.8
16:55 11.7 7.0 73 1018.6 3.1 NE 3.8 0.0 1.8
16:56 11.7 7.0 73 1018.6 3.1 NE 3.8 0.0 1.8
16:57 11.7 7.0 73 1018.7 3.1 N 3.8 0.0 1.8
16:58 11.6 6.9 73 1018.9 1.6 N 3.8 0.0 1.8
16:59 11.6 6.9 73 1018.8 1.6 N 3.8 0.0 1.8
17:00 11.6 6.9 73 1018.7 1.6 W 3.8 0.0 1.8
17:01 11.6 6.9 73 1018.6 1.6 W 3.8 0.0 1.8
17:02 11.6 6.9 73 1018.8 1.6 W 3.8 0.0 1.8
17:03 11.6 6.9 73 1018.8 1.6 W 3.8 0.0 1.8
17:04 11.6 6.9 73 1018.7 1.6 W 3.8 0.0 1.8
17:06 11.5 6.8 73 1018.9 4.5 SE 4.5 0.0 1.8
17:07 11.5 6.8 73 1018.7 4.5 N 4.5 0.0 1.8
17:08 11.5 6.8 73 1018.7 2.2 ENE 4.5 0.0 1.8
17:09 11.5 6.8 73 1019.0 3.1 ENE 4.5 0.0 1.8
17:10 11.5 6.8 73 1019.0 3.1 ENE 4.5 0.0 1.8
17:11 11.4 6.5 72 1018.8 1.6 E 4.5 0.0 1.8
17:12 11.4 6.5 72 1018.8 1.6 W 4.5 0.0 1.8
17:13 11.4 6.5 72 1018.7 3.1 NE 4.5 0.0 1.8
17:14 11.4 6.5 72 1018.6 0.7 N 4.5 0.0 1.8
17:15 11.4 6.5 72 1018.8 1.6 W 4.5 0.0 1.8
17:16 11.4 6.5 72 1018.6 2.2 N 4.5 0.0 1.8
17:17 11.4 6.5 72 1018.8 0.7 NE 4.5 0.0 1.8
17:18 11.4 6.5 72 1018.7 1.6 SE 4.5 0.0 1.8
17:19 11.4 6.5 72 1018.8 1.6 NW 3.1 0.0 1.8
17:20 11.4 6.5 72 1018.8 1.6 NE 3.1 0.0 1.8
17:21 11.3 6.4 72 1018.8 1.6 N 3.1 0.0 1.8
17:22 11.3 6.4 72 1018.7 2.2 N 3.1 0.0 1.8
17:23 11.3 6.4 72 1018.8 1.6 N 2.2 0.0 1.8
17:24 11.3 6.4 72 1018.9 0.7 N 2.2 0.0 1.8
17:25 11.3 6.6 73 1018.8 0.7 NE 2.2 0.0 1.8
17:27 11.3 6.6 73 1018.9 1.6 NE 2.2 0.0 1.8
17:28 11.3 6.6 73 1018.7 1.6 N 2.2 0.0 1.8
17:29 11.4 6.7 73 1018.7 0.7 NW 2.2 0.0 1.8
17:30 11.4 6.7 73 1018.7 1.6 S 2.2 0.0 1.8
17:31 11.4 6.7 73 1018.8 0.7 NE 2.2 0.0 1.8
17:32 11.4 6.7 73 1018.8 0.7 NE 2.2 0.0 1.8
17:33 11.4 6.7 73 1019.0 0.7 NE 1.6 0.0 1.8
17:34 11.4 6.7 73 1018.8 0.7 N 1.6 0.0 1.8
17:35 11.4 6.7 73 1018.8 0.7 W 1.6 0.0 1.8
17:36 11.4 6.7 73 1018.9 1.6 SSW 1.6 0.0 1.8
17:37 11.4 6.7 73 1018.9 1.6 E 1.6 0.0 1.8
17:38 11.4 6.7 73 1019.1 1.6 S 1.6 0.0 1.8
17:39 11.4 6.7 73 1018.8 1.6 S 1.6 0.0 1.8
17:40 11.4 6.7 73 1019.0 1.6 N 1.6 0.0 1.8
17:42 11.4 6.7 73 1019.1 1.6 S 1.6 0.0 1.8
17:43 11.4 6.7 73 1019.1 2.2 S 2.2 0.0 1.8
17:44 11.4 6.7 73 1019.0 2.2 SE 2.2 0.0 1.8
17:45 11.4 6.7 73 1019.1 1.6 SE 2.2 0.0 1.8
17:46 11.4 6.7 73 1019.0 1.6 S 2.2 0.0 1.8
17:47 11.4 6.7 73 1019.0 1.6 S 2.2 0.0 1.8
17:48 11.4 6.7 73 1018.9 2.2 S 2.2 0.0 1.8
17:49 11.3 6.6 73 1019.1 2.2 E 2.2 0.0 1.8
17:50 11.3 6.6 73 1019.0 1.6 S 2.2 0.0 1.8
17:51 11.3 6.6 73 1019.1 0.7 N 2.2 0.0 1.8
17:52 11.3 6.6 73 1018.9 0.7 E 2.2 0.0 1.8
17:53 11.3 6.6 73 1019.0 0.0 E 2.2 0.0 1.8
17:54 11.3 6.6 73 1019.2 1.6 SE 2.2 0.0 1.8
17:56 11.3 6.6 73 1019.1 1.6 N 2.2 0.0 1.8
17:57 11.3 6.6 73 1019.2 0.7 NE 2.2 0.0 1.8
17:58 11.3 6.6 73 1019.2 0.7 N 2.2 0.0 1.8
17:59 11.3 6.6 73 1019.1 0.0 N 2.2 0.0 1.8
18:00 11.3 6.6 73 1019.1 0.0 N 2.2 0.0 1.8
18:01 11.3 6.6 73 1019.1 0.0 N 1.6 0.0 1.8
18:02 11.3 6.6 73 1019.0 0.0 N 1.6 0.0 1.8
18:03 11.3 6.6 73 1019.2 0.0 N 1.6 0.0 1.8
18:04 11.3 6.6 73 1019.1 0.0 N 1.6 0.0 1.8
18:05 11.3 6.6 73 1019.1 0.0 N 1.6 0.0 1.8
18:06 11.3 6.6 73 1019.2 0.0 SE 1.6 0.0 1.8
18:07 11.3 6.6 73 1019.2 0.7 SE 1.6 0.0 1.8
18:08 11.2 6.5 73 1019.3 0.7 E 1.6 0.0 1.8
18:10 11.2 6.5 73 1019.2 1.6 S 1.6 0.0 1.8
18:11 11.2 6.5 73 1019.3 0.7 S 1.6 0.0 1.8
18:12 11.2 6.5 73 1019.3 0.0 S 1.6 0.0 1.8
18:13 11.2 6.5 73 1019.2 0.0 S 1.6 0.0 1.8
18:14 11.2 6.5 73 1019.2 0.0 S 1.6 0.0 1.8
18:15 11.2 6.5 73 1019.2 0.0 S 1.6 0.0 1.8
18:16 11.2 6.5 73 1019.2 0.0 S 1.6 0.0 1.8
18:17 11.1 6.4 73 1019.0 0.0 S 1.6 0.0 1.8
18:18 11.1 6.4 73 1019.4 0.0 S 1.6 0.0 1.8
18:19 11.1 6.4 73 1019.1 0.0 S 1.6 0.0 1.8
18:20 11.0 6.3 73 1019.3 0.0 S 1.6 0.0 1.8
18:21 11.0 6.3 73 1019.1 0.0 S 0.7 0.0 1.8
18:22 11.0 6.3 73 1019.0 0.0 S 0.7 0.0 1.8
18:23 10.9 6.3 73 1019.5 0.0 S 0.0 0.0 1.8
18:25 10.9 6.3 73 1019.3 0.0 S 0.0 0.0 1.8
18:26 10.9 6.3 73 1019.3 0.0 S 0.0 0.0 1.8
18:27 10.8 6.2 73 1019.4 0.7 S 0.7 0.0 1.8
18:28 10.8 6.2 73 1019.2 0.0 NE 0.7 0.0 1.8
18:29 10.8 6.2 73 1019.2 0.0 NE 0.7 0.0 1.8
18:30 10.8 6.2 73 1019.2 0.0 NE 0.7 0.0 1.8
18:31 10.7 6.1 73 1019.3 0.7 NE 0.7 0.0 1.8
18:32 10.7 6.1 73 1019.5 0.7 NE 0.7 0.0 1.8
18:33 10.7 6.1 73 1019.4 0.7 NE 0.7 0.0 1.8
18:34 10.6 6.0 73 1019.5 0.0 NE 0.7 0.0 1.8
18:35 10.6 6.0 73 1019.3 0.0 NE 0.7 0.0 1.8
18:36 10.6 6.0 73 1019.5 0.0 NE 0.7 0.0 1.8
18:37 10.6 6.0 73 1019.5 0.7 NE 0.7 0.0 1.8
18:39 10.5 5.9 73 1019.5 0.7 NE 0.7 0.0 1.8
18:40 10.4 5.8 73 1019.5 0.7 NE 0.7 0.0 1.8
18:41 10.4 5.8 73 1019.3 0.0 NE 0.7 0.0 1.8
18:42 10.4 5.8 73 1019.4 0.7 NE 0.7 0.0 1.8
18:43 10.3 5.7 73 1019.4 0.7 NE 0.7 0.0 1.8
18:44 10.3 5.7 73 1019.4 0.7 NE 0.7 0.0 1.8
18:45 10.3 5.7 73 1019.5 1.6 E 1.6 0.0 1.8
18:46 10.2 5.6 73 1019.6 0.7 NE 1.6 0.0 1.8
18:47 10.2 5.6 73 1019.5 0.7 E 1.6 0.0 1.8
18:48 10.2 5.6 73 1019.5 0.7 E 1.6 0.0 1.8
18:49 10.2 5.6 73 1019.5 0.7 E 1.6 0.0 1.8
18:50 10.2 5.6 73 1019.5 0.7 ENE 1.6 0.0 1.8
18:51 10.1 5.5 73 1019.6 0.7 NE 1.6 0.0 1.8
18:52 10.1 5.5 73 1019.4 0.7 NE 1.6 0.0 1.8
18:54 10.0 5.4 73 1019.6 0.7 NE 1.6 0.0 1.8
18:55 10.0 5.4 73 1019.6 0.7 NE 1.6 0.0 1.8
18:56 10.0 5.4 73 1019.7 0.7 NE 0.7 0.0 1.8
18:57 10.0 5.4 73 1019.7 0.7 NE 0.7 0.0 1.8
18:58 9.9 5.3 73 1019.5 0.7 NE 0.7 0.0 1.8
18:59 9.9 5.3 73 1019.6 0.0 NE 0.7 0.0 1.8
19:00 9.9 5.3 73 1019.7 0.0 NE 0.7 0.0 1.8
19:01 9.9 5.3 73 1019.6 0.0 NE 0.7 0.0 1.8
19:02 9.9 5.3 73 1019.6 0.0 NE 0.7 0.0 1.8
19:03 9.9 5.3 73 1019.7 0.0 NE 0.7 0.0 1.8
19:04 9.9 5.3 73 1019.8 0.0 NE 0.7 0.0 1.8
19:05 9.9 5.3 73 1019.7 0.0 NE 0.7 0.0 1.8
19:06 9.9 5.3 73 1019.7 0.0 NE 0.7 0.0 1.8
19:08 9.6 5.0 73 1019.9 0.7 NE 0.7 0.0 1.8
19:09 9.6 5.0 73 1019.7 0.7 NE 0.7 0.0 1.8
19:10 9.6 5.0 73 1019.7 0.0 NE 0.7 0.0 1.8
19:11 9.5 4.9 73 1019.8 0.0 NE 0.7 0.0 1.8
19:12 9.5 4.9 73 1019.7 0.0 NE 0.7 0.0 1.8
19:13 9.5 4.9 73 1019.7 0.0 NE 0.7 0.0 1.8
19:14 9.5 4.9 73 1019.9 0.7 NE 0.7 0.0 1.8
19:15 9.5 4.9 73 1019.8 0.7 NE 0.7 0.0 1.8
19:17 9.4 4.8 73 1019.8 0.7 N 0.7 0.0 1.8
19:18 9.4 4.8 73 1019.8 0.7 E 0.7 0.0 1.8
19:19 9.3 4.7 73 1020.1 0.0 E 0.7 0.0 1.8
19:20 9.3 4.7 73 1020.0 0.7 E 0.7 0.0 1.8
19:21 9.3 4.7 73 1020.0 0.7 E 0.7 0.0 1.8
19:22 9.2 4.6 73 1019.9 0.7 E 0.7 0.0 1.8
19:23 9.2 4.6 73 1019.9 0.0 E 0.7 0.0 1.8
19:24 9.1 4.5 73 1020.0 0.7 E 0.7 0.0 1.8
19:25 9.1 4.5 73 1020.1 0.0 E 0.7 0.0 1.8
19:26 9.0 4.2 72 1019.8 0.7 E 0.7 0.0 1.8
19:27 8.9 4.1 72 1020.0 0.7 E 0.7 0.0 1.8
19:28 8.8 4.0 72 1020.0 1.6 SW 1.6 0.0 1.8
19:29 8.8 4.0 72 1019.8 1.6 SW 1.6 0.0 1.8
19:31 8.6 3.8 72 1020.0 0.7 SW 1.6 0.0 1.8
19:32 8.6 3.8 72 1019.9 1.6 SW 1.6 0.0 1.8
19:33 8.6 3.8 72 1019.9 1.6 SW 1.6 0.0 1.8
19:34 8.5 3.7 72 1019.9 0.7 SW 1.6 0.0 1.8
19:35 8.5 3.7 72 1019.9 0.7 SW 1.6 0.0 1.8
19:36 8.5 3.7 72 1020.3 0.7 SW 1.6 0.0 1.8
19:37 8.5 3.7 72 1019.9 0.7 SW 1.6 0.0 1.8
19:38 8.5 3.7 72 1020.1 0.7 SW 1.6 0.0 1.8
19:39 8.5 3.7 72 1020.0 0.7 SW 1.6 0.0 1.8
19:40 8.5 3.9 73 1020.1 0.0 SW 1.6 0.0 1.8
19:41 8.5 3.9 73 1020.0 0.0 SW 1.6 0.0 1.8
19:42 8.5 3.9 73 1019.8 0.7 SW 1.6 0.0 1.8
19:43 8.5 3.9 73 1019.9 0.7 SW 1.6 0.0 1.8
19:44 8.5 3.9 73 1020.1 0.0 SW 0.7 0.0 1.8
19:45 8.5 3.9 73 1020.0 0.0 SW 0.7 0.0 1.8
19:46 8.5 3.9 73 1020.3 0.0 SW 0.7 0.0 1.8
19:47 8.5 3.9 73 1020.1 0.0 SW 0.7 0.0 1.8
19:49 8.5 4.1 74 1020.0 0.0 SW 0.7 0.0 1.8
19:50 8.5 4.1 74 1020.0 0.0 SW 0.7 0.0 1.8
19:51 8.5 4.1 74 1019.9 0.0 SW 0.7 0.0 1.8
19:52 8.5 4.1 74 1020.2 0.0 SW 0.7 0.0 1.8
19:53 8.5 4.1 74 1020.2 0.0 SW 0.7 0.0 1.8
19:54 8.5 4.1 74 1020.1 0.0 SW 0.0 0.0 1.8
19:55 8.5 4.1 74 1020.1 0.0 SW 0.0 0.0 1.8
19:56 8.5 4.1 74 1020.2 0.0 SW 0.0 0.0 1.8
19:57 8.5 4.1 74 1020.1 0.0 SW 0.0 0.0 1.8
19:58 8.5 4.1 74 1020.0 0.0 SW 0.0 0.0 1.8
19:59 8.4 4.0 74 1019.9 0.0 SW 0.0 0.0 1.8
20:00 8.4 4.0 74 1020.1 0.0 SW 0.0 0.0 1.8
20:01 8.3 3.9 74 1020.2 0.0 SW 0.0 0.0 1.8
20:03 8.2 3.8 74 1020.2 0.0 SW 0.0 0.0 1.8
20:04 8.2 3.8 74 1020.0 0.0 SW 0.0 0.0 1.8
20:05 8.2 3.8 74 1020.1 0.0 SW 0.0 0.0 1.8
20:06 8.2 3.8 74 1020.2 0.7 SW 0.7 0.0 1.8
20:07 8.1 3.7 74 1020.3 0.7 SW 0.7 0.0 1.8
20:08 8.1 3.7 74 1020.0 0.7 SW 0.7 0.0 1.8
20:09 8.1 3.7 74 1020.2 0.7 SW 0.7 0.0 1.8
20:10 8.1 3.7 74 1020.2 0.7 SW 0.7 0.0 1.8
20:11 8.1 3.7 74 1020.2 0.0 SW 0.7 0.0 1.8
20:12 8.1 3.7 74 1020.3 0.0 SW 0.7 0.0 1.8
20:13 8.1 3.7 74 1020.3 0.7 SW 0.7 0.0 1.8
20:14 8.1 3.7 74 1020.2 0.7 SW 0.7 0.0 1.8
20:15 8.1 3.7 74 1020.1 0.7 SW 0.7 0.0 1.8
20:17 8.1 3.7 74 1020.3 0.7 SW 0.7 0.0 1.8
20:18 8.1 3.7 74 1020.2 0.7 SW 0.7 0.0 1.8
20:19 8.1 3.7 74 1020.4 0.0 SW 0.7 0.0 1.8
20:20 8.1 3.7 74 1020.2 0.0 SW 0.7 0.0 1.8
20:21 8.1 3.9 75 1020.1 0.7 SW 0.7 0.0 1.8
20:22 8.2 4.0 75 1020.2 0.7 SW 0.7 0.0 1.8
20:23 8.2 4.0 75 1020.2 0.7 SW 0.7 0.0 1.8
20:24 8.2 4.0 75 1020.3 0.0 SW 0.7 0.0 1.8
20:25 8.2 4.0 75 1020.3 0.7 SW 0.7 0.0 1.8
20:26 8.2 4.0 75 1020.3 0.7 SW 0.7 0.0 1.8
20:27 8.2 4.0 75 1020.2 0.7 SW 0.7 0.0 1.8
20:28 8.2 4.0 75 1020.1 0.7 SW 0.7 0.0 1.8
20:29 8.2 4.0 75 1020.3 0.7 SW 0.7 0.0 1.8
20:30 8.2 4.0 75 1020.4 0.7 SW 0.7 0.0 1.8
20:32 8.2 4.0 75 1020.2 0.0 SW 0.7 0.0 1.8
20:33 8.2 4.0 75 1020.4 0.7 SW 0.7 0.0 1.8
20:34 8.2 4.0 75 1020.2 0.7 SW 0.7 0.0 1.8
20:35 8.2 4.0 75 1020.0 0.7 SW 0.7 0.0 1.8
20:36 8.2 4.0 75 1020.0 0.7 SW 0.7 0.0 1.8
20:37 8.2 4.0 75 1020.2 0.7 SW 0.7 0.0 1.8
20:38 8.2 4.2 76 1020.4 0.0 SW 0.7 0.0 1.8
20:39 8.2 4.2 76 1020.1 0.0 SW 0.7 0.0 1.8
20:40 8.2 4.2 76 1020.3 0.7 SW 0.7 0.0 1.8
20:41 8.2 4.2 76 1020.3 0.0 SW 0.7 0.0 1.8
20:42 8.2 4.2 76 1020.3 0.7 SW 0.7 0.0 1.8
20:43 8.2 4.2 76 1020.2 0.7 SW 0.7 0.0 1.8
20:44 8.3 4.3 76 1020.2 0.7 NW 0.7 0.0 1.8
20:46 8.3 4.3 76 1020.1 1.6 NE 2.2 0.0 1.8
20:47 8.3 4.3 76 1020.1 1.6 W 2.2 0.0 1.8
20:48 8.3 4.3 76 1020.0 4.5 SW 4.5 0.0 1.8
20:49 8.3 4.3 76 1020.0 3.1 NE 4.5 0.0 1.8
20:50 8.3 4.3 76 1020.0 3.1 N 4.5 0.0 1.8
20:51 8.4 4.4 76 1020.1 3.1 N 4.5 0.0 1.8
20:52 8.4 4.4 76 1020.1 2.2 N 4.5 0.0 1.8
20:53 8.4 4.6 77 1020.1 2.2 NE 4.5 0.0 1.8
20:54 8.5 4.7 77 1020.0 2.2 NE 4.5 0.0 1.8
20:55 8.5 4.7 77 1020.0 3.1 E 4.5 0.0 1.8
20:56 8.5 4.7 77 1020.4 3.1 E 4.5 0.0 1.8
20:57 8.5 4.7 77 1020.0 2.2 NE 4.5 0.0 1.8
20:58 8.6 4.8 77 1020.0 3.8 E 4.5 0.0 1.8
20:59 8.6 4.8 77 1019.9 3.8 NE 3.8 0.0 1.8
21:01 8.6 4.8 77 1020.1 3.8 NE 3.8 0.0 1.8
21:02 8.6 4.8 77 1020.0 3.8 NE 3.8 0.0 1.8
21:03 8.6 4.8 77 1020.1 3.8 NE 3.8 0.0 1.8
21:04 8.6 4.8 77 1019.9 3.8 NE 3.8 0.0 1.8
21:05 8.6 4.8 77 1020.0 3.8 NE 3.8 0.0 1.8
21:06 8.6 4.8 77 1020.0 3.8 NE 3.8 0.0 1.8
21:07 8.8 5.0 77 1019.6 3.1 NE 3.8 0.0 1.8
21:08 8.8 5.0 77 1019.9 3.8 NE 3.8 0.0 1.8
21:09 8.8 5.0 77 1020.0 3.8 N 3.8 0.0 1.8
21:10 8.8 5.0 77 1019.9 2.2 NE 3.8 0.0 1.8
21:11 8.8 5.0 77 1019.9 3.1 N 3.8 0.0 1.8
21:12 8.8 5.0 77 1019.9 3.1 NE 3.8 0.0 1.8
21:13 8.8 5.0 77 1020.1 2.2 W 3.8 0.0 1.8
21:14 8.8 5.0 77 1019.8 3.1 NE 3.8 0.0 1.8
21:15 8.8 5.0 77 1020.0 2.2 NE 3.8 0.0 1.8
21:16 8.8 5.0 77 1019.9 2.2 NE 3.8 0.0 1.8
21:17 8.8 5.0 77 1019.9 2.2 NE 3.8 0.0 1.8
21:18 8.8 5.0 77 1019.8 1.6 NE 3.8 0.0 1.8
21:19 8.8 5.0 77 1019.9 1.6 WNW 3.1 0.0 1.8
21:20 8.8 5.0 77 1019.9 1.6 S 3.1 0.0 1.8
21:21 8.8 5.0 77 1019.9 1.6 E 3.1 0.0 1.8
21:23 8.8 5.0 77 1020.1 2.2 N 3.1 0.0 1.8
21:24 8.8 5.0 77 1020.2 1.6 NE 3.1 0.0 1.8
21:25 8.8 5.0 77 1020.1 1.6 NE 2.2 0.0 1.8
21:26 8.8 4.8 76 1020.1 1.6 NE 2.2 0.0 1.8
21:27 8.8 4.8 76 1020.0 0.7 NE 2.2 0.0 1.8
21:28 8.8 4.8 76 1020.0 0.7 NE 2.2 0.0 1.8
21:29 8.8 4.8 76 1019.8 0.7 NE 2.2 0.0 1.8
21:30 8.8 4.8 76 1020.1 0.7 NE 2.2 0.0 1.8
21:31 8.7 4.7 76 1020.0 0.7 N 2.2 0.0 1.8
21:32 8.7 4.7 76 1020.2 0.7 N 2.2 0.0 1.8
21:33 8.7 4.7 76 1020.1 0.7 E 2.2 0.0 1.8
21:34 8.7 4.7 76 1020.1 0.0 E 2.2 0.0 1.8
21:35 8.7 4.7 76 1020.1 0.7 E 2.2 0.0 1.8
21:37 8.6 4.6 76 1020.1 0.7 E 2.2 0.0 1.8
21:38 8.6 4.6 76 1020.3 0.7 E 2.2 0.0 1.8
21:39 8.6 4.6 76 1020.2 0.7 E 2.2 0.0 1.8
21:40 8.6 4.6 76 1020.4 0.7 S 2.2 0.0 1.8
21:41 8.5 4.5 76 1020.2 0.7 S 0.7 0.0 1.8
21:42 8.5 4.5 76 1020.2 1.6 NE 1.6 0.0 1.8
21:43 8.5 4.5 76 1020.1 2.2 E 2.2 0.0 1.8
21:44 8.5 4.5 76 1020.2 2.2 NE 2.2 0.0 1.8
21:45 8.5 4.5 76 1020.4 2.2 E 2.2 0.0 1.8
21:46 8.5 4.5 76 1020.1 2.2 NE 3.1 0.0 1.8
21:47 8.5 4.5 76 1019.8 2.2 NE 3.1 0.0 1.8
21:48 8.5 4.5 76 1020.2 2.2 NE 3.1 0.0 1.8
21:49 8.5 4.5 76 1020.0 2.2 NE 3.1 0.0 1.8
21:51 8.5 4.5 76 1020.3 1.6 N 3.1 0.0 1.8
21:52 8.5 4.5 76 1020.3 1.6 NW 3.1 0.0 1.8
21:53 8.6 4.6 76 1020.0 0.7 W 3.1 0.0 1.8
21:54 8.6 4.6 76 1020.3 1.6 W 3.1 0.0 1.8
21:55 8.6 4.8 77 1020.2 0.7 W 3.1 0.0 1.8
21:56 8.6 4.8 77 1020.2 0.7 W 2.2 0.0 1.8
21:57 8.6 4.8 77 1020.2 0.7 W 2.2 0.0 1.8
21:58 8.6 4.8 77 1020.2 0.0 N 2.2 0.0 1.8
21:59 8.6 4.8 77 1020.2 0.0 N 2.2 0.0 1.8
22:00 8.6 4.8 77 1020.4 0.7 N 1.6 0.0 1.8
22:01 8.5 4.7 77 1020.4 0.7 N 1.6 0.0 1.8
22:02 8.5 4.7 77 1020.2 0.7 N 1.6 0.0 1.8
22:03 8.5 4.7 77 1020.4 2.2 SW 2.2 0.0 1.8
22:05 8.4 4.6 77 1020.4 0.7 S 2.2 0.0 1.8
22:06 8.4 4.4 76 1020.2 1.6 S 2.2 0.0 1.8
22:07 8.3 4.3 76 1020.4 0.7 S 2.2 0.0 1.8
22:08 8.2 4.2 76 1020.4 1.6 NE 2.2 0.0 1.8
22:09 8.2 4.2 76 1020.3 1.6 NE 2.2 0.0 1.8
22:10 8.2 4.2 76 1020.3 1.6 NE 2.2 0.0 1.8
22:11 8.1 4.1 76 1020.3 0.7 NE 2.2 0.0 1.8
22:12 8.1 4.1 76 1020.6 0.7 NE 2.2 0.0 1.8
22:13 8.1 4.1 76 1020.3 0.7 NE 2.2 0.0 1.8
22:14 8.1 4.1 76 1020.5 1.6 SW 2.2 0.0 1.8
22:15 8.1 4.1 76 1020.3 1.6 SE 1.6 0.0 1.8
22:16 8.1 4.1 76 1020.5 0.7 NW 1.6 0.0 1.8
22:17 8.1 4.1 76 1020.5 0.7 S 1.6 0.0 1.8
22:19 8.1 4.1 76 1020.3 1.6 SE 1.6 0.0 1.8
22:20 8.1 4.1 76 1020.4 2.2 S 2.2 0.0 1.8
22:21 8.1 4.1 76 1020.5 2.2 S 2.2 0.0 1.8
22:22 8.1 4.1 76 1020.5 1.6 S 2.2 0.0 1.8
22:23 8.0 4.0 76 1020.6 1.6 E 2.2 0.0 1.8
22:24 8.0 4.0 76 1020.6 1.6 E 2.2 0.0 1.8
22:25 8.0 4.0 76 1020.6 0.7 SE 2.2 0.0 1.8
22:26 7.9 3.9 76 1020.6 0.7 S 2.2 0.0 1.8
22:27 7.9 3.9 76 1020.6 0.7 NE 2.2 0.0 1.8
22:28 7.9 3.9 76 1020.6 0.7 NE 2.2 0.0 1.8
22:29 7.9 3.9 76 1020.8 0.7 NE 2.2 0.0 1.8
22:30 7.9 3.9 76 1020.7 1.6 S 2.2 0.0 1.8
22:31 7.9 3.9 76 1020.8 0.0 SE 2.2 0.0 1.8
22:32 7.9 3.9 76 1020.7 0.0 SE 1.6 0.0 1.8
22:34 7.8 3.8 76 1020.7 0.0 SE 1.6 0.0 1.8
22:35 7.8 3.8 76 1020.8 0.7 NE 1.6 0.0 1.8
22:36 7.9 3.9 76 1020.8 0.7 NE 1.6 0.0 1.8
22:37 7.9 3.9 76 1020.7 0.7 SW 1.6 0.0 1.8
22:38 7.9 3.9 76 1020.7 0.7 SW 1.6 0.0 1.8
22:39 7.9 3.9 76 1020.7 0.7 SW 1.6 0.0 1.8
22:40 7.9 3.9 76 1020.9 0.7 E 1.6 0.0 1.8
22:41 7.9 3.9 76 1020.6 0.0 E 0.7 0.0 1.8
22:42 7.9 4.1 77 1020.8 0.7 NE 0.7 0.0 1.8
22:43 7.9 4.1 77 1020.5 0.7 NE 0.7 0.0 1.8
22:44 7.9 4.1 77 1020.6 0.0 NE 0.7 0.0 1.8
22:45 7.9 4.1 77 1020.8 0.0 NE 0.7 0.0 1.8
22:46 8.0 4.2 77 1020.6 0.7 S 0.7 0.0 1.8
22:48 8.0 4.2 77 1020.6 0.7 S 0.7 0.0 1.8
22:49 8.0 4.2 77 1021.0 0.7 S 0.7 0.0 1.8
22:50 8.0 4.2 77 1020.9 0.7 S 0.7 0.0 1.8
22:51 8.1 4.3 77 1020.8 1.6 S 1.6 0.0 1.8
22:52 8.1 4.3 77 1020.8 1.6 S 1.6 0.0 1.8
22:53 8.1 4.3 77 1020.9 1.6 S 1.6 0.0 1.8
22:54 8.1 4.5 78 1020.7 0.7 S 1.6 0.0 1.8
22:55 8.1 4.5 78 1020.9 0.7 S 1.6 0.0 1.8
22:56 8.2 4.6 78 1020.9 1.6 S 1.6 0.0 1.8
22:57 8.2 4.6 78 1020.7 2.2 SE 2.2 0.0 1.8
22:58 8.2 4.6 78 1020.9 0.7 S 2.2 0.0 1.8
22:59 8.2 4.6 78 1020.8 0.7 SE 2.2 0.0 1.8
23:00 8.3 4.7 78 1020.8 0.7 W 2.2 0.0 1.8
23:02 8.3 4.7 78 1021.0 0.7 W 2.2 0.0 1.8
23:03 8.3 4.7 78 1020.7 0.7 W 2.2 0.0 1.8
23:04 8.3 4.7 78 1020.7 0.7 W 2.2 0.0 1.8
23:05 8.3 4.7 78 1020.7 0.7 W 2.2 0.0 1.8
23:06 8.3 4.7 78 1020.7 0.7 W 2.2 0.0 1.8
23:07 8.5 5.1 79 1020.9 1.6 SW 1.6 0.0 1.8
23:08 8.5 5.1 79 1020.8 1.6 NE 1.6 0.0 1.8
23:09 8.5 5.1 79 1020.8 2.2 S 2.2 0.0 1.8
23:10 8.6 5.2 79 1020.9 2.2 S 2.2 0.0 1.8
23:11 8.6 5.3 80 1020.8 2.2 N 2.2 0.0 1.8
23:12 8.6 5.3 80 1020.7 2.2 SE 2.2 0.0 1.8
23:13 8.7 5.4 80 1020.8 2.2 S 2.2 0.0 1.8
23:14 8.7 5.4 80 1020.9 1.6 SE 2.2 0.0 1.8
23:15 8.8 5.5 80 1020.8 3.1 SW 3.1 0.0 1.8
23:17 8.8 5.5 80 1020.5 3.1 S 3.1 0.0 1.8
23:18 8.8 5.5 80 1020.7 2.2 S 3.1 0.0 1.8
23:19 8.8 5.5 80 1020.8 2.2 S 3.1 0.0 1.8
23:20 8.9 5.6 80 1020.8 2.2 SE 3.1 0.0 1.8
23:22 9.0 5.7 80 1020.9 2.2 SE 3.1 0.0 1.8
23:23 9.0 5.7 80 1020.8 2.2 SE 3.1 0.0 1.8
23:24 9.0 5.7 80 1020.8 2.2 S 3.1 0.0 1.8
23:25 9.0 5.7 80 1020.9 1.6 S 3.1 0.0 1.8
23:26 9.0 5.7 80 1020.9 1.6 S 3.1 0.0 1.8
23:27 9.0 5.7 80 1020.7 1.6 S 3.1 0.0 1.8
23:28 9.0 5.7 80 1020.7 2.2 ESE 3.1 0.0 1.8
23:29 9.0 5.7 80 1020.8 1.6 S 3.1 0.0 1.8
23:30 9.0 5.7 80 1020.8 1.6 SE 3.1 0.0 1.8
23:31 9.1 5.8 80 1020.8 2.2 NE 3.1 0.0 1.8
23:32 9.1 5.8 80 1020.9 0.7 NE 3.1 0.0 1.8
23:33 9.1 5.8 80 1020.8 1.6 S 3.1 0.0 1.8
23:34 9.1 5.8 80 1020.8 3.8 S 3.8 0.0 1.8
23:35 9.1 5.8 80 1020.8 3.1 S 3.8 0.0 1.8
23:36 9.1 5.8 80 1020.8 3.1 SW 3.8 0.0 1.8
23:37 9.1 5.8 80 1020.9 2.2 NE 3.8 0.0 1.8
23:39 9.1 5.8 80 1020.8 0.7 SW 3.8 0.0 1.8
23:40 9.1 5.8 80 1021.0 1.6 S 3.8 0.0 1.8
23:41 9.1 5.8 80 1020.8 1.6 S 3.8 0.0 1.8
23:42 9.1 5.8 80 1020.7 1.6 NE 3.8 0.0 1.8
23:43 9.1 5.8 80 1020.7 1.6 N 3.8 0.0 1.8
23:44 9.1 5.8 80 1020.7 1.6 N 3.8 0.0 1.8
23:45 9.1 5.8 80 1021.0 1.6 N 3.1 0.0 1.8
23:46 9.1 5.8 80 1020.9 0.7 SW 3.1 0.0 1.8
23:47 9.1 5.8 80 1020.9 1.6 SW 2.2 0.0 1.8
23:48 9.1 5.8 80 1020.8 1.6 SE 2.2 0.0 1.8
23:49 9.1 5.8 80 1020.7 1.6 NE 2.2 0.0 1.8
23:50 9.1 5.8 80 1020.7 0.7 N 1.6 0.0 1.8
23:51 9.1 5.8 80 1020.7 1.6 E 1.6 0.0 1.8
23:52 9.1 5.8 80 1020.8 1.6 SE 1.6 0.0 1.8
23:54 9.1 5.8 80 1020.7 2.2 E 2.2 0.0 1.8
23:55 9.1 5.8 80 1020.8 1.6 E 2.2 0.0 1.8
23:56 9.1 5.8 80 1020.7 0.7 S 2.2 0.0 1.8
23:57 9.1 5.8 80 1020.8 1.6 NE 2.2 0.0 1.8
23:58 9.1 5.8 80 1020.5 0.7 ESE 2.2 0.0 1.8
23:59 9.1 5.8 80 1020.8 1.6 SW 2.2 0.0 1.8

 

 

UK - WEATHER STATION TOPSITES - UK World Weather Websites

Copyright © Carnkie Weather 2009 - 2020.